Time,TemperatureF,DewpointF,PressureIn,WindDirection,WindDirectionDegrees,WindSpeedMPH,WindSpeedGustMPH,Humidity,HourlyPrecipIn,Conditions,Clouds,dailyrainin,SolarRadiationWatts/m^2,SoftwareType,DateUTC
2013-09-04 00:00:00,60.7,56.2,29.99,NW,318,0.0,0.0,85,0.00,,,0.00,0,WeatherCatV1.20B785,2013-09-04 04:00:00,
2013-09-04 00:01:00,60.6,56.1,29.99,NW,318,0.0,0.0,85,0.00,,,0.00,0,WeatherCatV1.20B785,2013-09-04 04:01:00,
2013-09-04 00:03:00,60.5,56.0,29.99,NW,318,0.0,0.0,85,0.00,,,0.00,0,WeatherCatV1.20B785,2013-09-04 04:03:00,
2013-09-04 00:06:00,60.4,55.9,29.99,NW,318,0.0,1.0,85,0.00,,,0.00,0,WeatherCatV1.20B785,2013-09-04 04:06:00,
2013-09-04 00:07:00,60.3,55.8,29.99,NW,318,0.0,1.0,85,0.00,,,0.00,0,WeatherCatV1.20B785,2013-09-04 04:07:00,
2013-09-04 00:08:00,60.3,55.8,29.99,NW,318,0.0,0.0,85,0.00,,,0.00,0,WeatherCatV1.20B785,2013-09-04 04:08:00,
2013-09-04 00:11:00,60.2,55.7,29.99,NW,318,0.0,0.0,85,0.00,,,0.00,0,WeatherCatV1.20B785,2013-09-04 04:11:00,
2013-09-04 00:12:00,60.2,55.7,29.99,NW,318,0.0,0.0,85,0.00,,,0.00,0,WeatherCatV1.20B785,2013-09-04 04:12:00,
2013-09-04 00:14:00,60.0,55.8,29.99,NW,318,0.0,0.0,86,0.00,,,0.00,0,WeatherCatV1.20B785,2013-09-04 04:14:00,
2013-09-04 00:16:00,59.9,55.7,29.99,NW,318,0.0,0.0,86,0.00,,,0.00,0,WeatherCatV1.20B785,2013-09-04 04:16:00,
2013-09-04 00:17:00,59.9,55.7,29.99,NW,318,0.0,0.0,86,0.00,,,0.00,0,WeatherCatV1.20B785,2013-09-04 04:17:00,
2013-09-04 00:21:00,59.6,55.4,29.99,NW,318,1.0,1.0,86,0.00,,,0.00,0,WeatherCatV1.20B785,2013-09-04 04:21:00,
2013-09-04 00:22:00,59.6,55.4,29.99,NW,318,1.0,1.0,86,0.00,,,0.00,0,WeatherCatV1.20B785,2013-09-04 04:22:00,
2013-09-04 00:26:00,59.2,55.3,29.99,NW,318,0.0,1.0,87,0.00,,,0.00,0,WeatherCatV1.20B785,2013-09-04 04:26:00,
2013-09-04 00:27:00,59.1,55.2,29.99,NW,318,1.0,1.0,87,0.00,,,0.00,0,WeatherCatV1.20B785,2013-09-04 04:27:00,
2013-09-04 00:28:00,59.1,55.2,29.99,NW,318,0.0,1.0,87,0.00,,,0.00,0,WeatherCatV1.20B785,2013-09-04 04:28:00,
2013-09-04 00:29:00,59.0,55.1,29.99,NW,318,0.0,0.0,87,0.00,,,0.00,0,WeatherCatV1.20B785,2013-09-04 04:29:00,
2013-09-04 00:31:00,58.8,54.9,29.99,NW,318,0.0,1.0,87,0.00,,,0.00,0,WeatherCatV1.20B785,2013-09-04 04:31:00,
2013-09-04 00:32:00,58.8,55.2,29.99,NW,318,0.0,1.0,88,0.00,,,0.00,0,WeatherCatV1.20B785,2013-09-04 04:32:00,
2013-09-04 00:33:00,58.7,55.2,29.99,NW,318,0.0,1.0,88,0.00,,,0.00,0,WeatherCatV1.20B785,2013-09-04 04:33:00,
2013-09-04 00:34:00,58.6,55.0,29.99,NW,318,0.0,1.0,88,0.00,,,0.00,0,WeatherCatV1.20B785,2013-09-04 04:34:00,
2013-09-04 00:37:00,58.5,55.0,29.99,NW,318,1.0,1.0,88,0.00,,,0.00,0,WeatherCatV1.20B785,2013-09-04 04:37:00,
2013-09-04 00:38:00,58.4,54.9,29.99,NW,318,0.0,1.0,88,0.00,,,0.00,0,WeatherCatV1.20B785,2013-09-04 04:38:00,
2013-09-04 00:39:00,58.3,54.8,29.99,NW,318,0.0,1.0,88,0.00,,,0.00,0,WeatherCatV1.20B785,2013-09-04 04:39:00,
2013-09-04 00:40:00,58.3,54.8,29.99,NW,304,1.0,3.0,88,0.00,,,0.00,0,WeatherCatV1.20B785,2013-09-04 04:40:00,
2013-09-04 00:42:00,58.2,54.7,29.99,NW,304,0.0,1.0,88,0.00,,,0.00,0,WeatherCatV1.20B785,2013-09-04 04:42:00,
2013-09-04 00:43:00,58.2,54.7,29.99,NW,304,1.0,2.0,88,0.00,,,0.00,0,WeatherCatV1.20B785,2013-09-04 04:43:00,
2013-09-04 00:44:00,58.1,54.6,29.99,NW,304,1.0,2.0,88,0.00,,,0.00,0,WeatherCatV1.20B785,2013-09-04 04:44:00,
2013-09-04 00:45:00,58.1,54.6,29.99,NW,304,0.0,2.0,88,0.00,,,0.00,0,WeatherCatV1.20B785,2013-09-04 04:45:00,
2013-09-04 00:48:00,58.0,54.5,29.99,NW,304,1.0,1.0,88,0.00,,,0.00,0,WeatherCatV1.20B785,2013-09-04 04:48:00,
2013-09-04 00:49:00,58.0,54.5,29.99,NW,304,0.0,1.0,88,0.00,,,0.00,0,WeatherCatV1.20B785,2013-09-04 04:49:00,
2013-09-04 00:50:00,58.0,54.5,29.99,NW,304,0.0,1.0,88,0.00,,,0.00,0,WeatherCatV1.20B785,2013-09-04 04:50:00,
2013-09-04 00:53:00,57.9,54.4,29.99,NW,304,2.0,2.0,88,0.00,,,0.00,0,WeatherCatV1.20B785,2013-09-04 04:53:00,
2013-09-04 00:54:00,57.9,54.4,29.99,NW,304,0.0,2.0,88,0.00,,,0.00,0,WeatherCatV1.20B785,2013-09-04 04:54:00,
2013-09-04 00:56:00,57.9,54.4,29.99,NW,304,0.0,1.0,88,0.00,,,0.00,0,WeatherCatV1.20B785,2013-09-04 04:56:00,
2013-09-04 00:58:00,57.8,54.3,29.99,NW,304,0.0,1.0,88,0.00,,,0.00,0,WeatherCatV1.20B785,2013-09-04 04:58:00,
2013-09-04 00:59:00,57.8,54.3,29.99,NW,304,0.0,1.0,88,0.00,,,0.00,0,WeatherCatV1.20B785,2013-09-04 04:59:00,
2013-09-04 01:01:00,57.7,54.2,29.99,NW,304,0.0,0.0,88,0.00,,,0.00,0,WeatherCatV1.20B785,2013-09-04 05:01:00,
2013-09-04 01:04:00,57.6,54.1,29.99,NW,304,0.0,1.0,88,0.00,,,0.00,0,WeatherCatV1.20B785,2013-09-04 05:04:00,
2013-09-04 01:05:00,57.6,54.1,29.99,NW,304,0.0,1.0,88,0.00,,,0.00,0,WeatherCatV1.20B785,2013-09-04 05:05:00,
2013-09-04 01:06:00,57.5,54.0,29.99,NW,304,0.0,0.0,88,0.00,,,0.00,0,WeatherCatV1.20B785,2013-09-04 05:06:00,
2013-09-04 01:11:00,57.4,53.9,29.99,NW,304,0.0,0.0,88,0.00,,,0.00,0,WeatherCatV1.20B785,2013-09-04 05:11:00,
2013-09-04 01:12:00,57.4,53.9,29.99,NW,304,0.0,0.0,88,0.00,,,0.00,0,WeatherCatV1.20B785,2013-09-04 05:12:00,
2013-09-04 01:14:00,57.3,53.8,29.99,NW,304,0.0,0.0,88,0.00,,,0.00,0,WeatherCatV1.20B785,2013-09-04 05:14:00,
2013-09-04 01:16:00,57.2,53.7,29.99,NW,304,0.0,0.0,88,0.00,,,0.00,0,WeatherCatV1.20B785,2013-09-04 05:16:00,
2013-09-04 01:17:00,57.2,53.7,29.99,NW,304,0.0,0.0,88,0.00,,,0.00,0,WeatherCatV1.20B785,2013-09-04 05:17:00,
2013-09-04 01:18:00,57.1,53.6,29.99,NW,304,0.0,0.0,88,0.00,,,0.00,0,WeatherCatV1.20B785,2013-09-04 05:18:00,
2013-09-04 01:20:00,57.0,53.5,29.99,NW,304,0.0,0.0,88,0.00,,,0.00,0,WeatherCatV1.20B785,2013-09-04 05:20:00,
2013-09-04 01:21:00,57.0,53.5,29.99,NW,304,0.0,0.0,88,0.00,,,0.00,0,WeatherCatV1.20B785,2013-09-04 05:21:00,
2013-09-04 01:22:00,57.0,53.5,29.99,NW,304,0.0,0.0,88,0.00,,,0.00,0,WeatherCatV1.20B785,2013-09-04 05:22:00,
2013-09-04 01:24:00,56.9,53.4,29.99,NW,304,0.0,0.0,88,0.00,,,0.00,0,WeatherCatV1.20B785,2013-09-04 05:24:00,
2013-09-04 01:26:00,56.8,53.6,29.99,NW,304,0.0,0.0,89,0.00,,,0.00,0,WeatherCatV1.20B785,2013-09-04 05:26:00,
2013-09-04 01:27:00,56.8,53.3,29.99,NW,304,0.0,0.0,88,0.00,,,0.00,0,WeatherCatV1.20B785,2013-09-04 05:27:00,
2013-09-04 01:29:00,56.7,53.5,29.99,NW,304,0.0,0.0,89,0.00,,,0.00,0,WeatherCatV1.20B785,2013-09-04 05:29:00,
2013-09-04 01:30:00,56.7,53.5,29.99,NW,304,0.0,1.0,89,0.00,,,0.00,0,WeatherCatV1.20B785,2013-09-04 05:30:00,
2013-09-04 01:31:00,56.6,53.4,29.99,NW,304,0.0,1.0,89,0.00,,,0.00,0,WeatherCatV1.20B785,2013-09-04 05:31:00,
2013-09-04 01:32:00,56.6,53.4,30.00,NW,304,1.0,1.0,89,0.00,,,0.00,0,WeatherCatV1.20B785,2013-09-04 05:32:00,
2013-09-04 01:33:00,56.5,53.0,30.00,NW,304,0.0,1.0,88,0.00,,,0.00,0,WeatherCatV1.20B785,2013-09-04 05:33:00,
2013-09-04 01:36:00,56.3,52.8,30.00,NW,304,0.0,1.0,88,0.00,,,0.00,0,WeatherCatV1.20B785,2013-09-04 05:36:00,
2013-09-04 01:37:00,56.2,53.0,30.00,NW,304,0.0,0.0,89,0.00,,,0.00,0,WeatherCatV1.20B785,2013-09-04 05:37:00,
2013-09-04 01:39:00,56.2,53.0,29.99,NW,304,0.0,0.0,89,0.00,,,0.00,0,WeatherCatV1.20B785,2013-09-04 05:39:00,
2013-09-04 01:41:00,56.0,52.8,30.00,NW,304,0.0,0.0,89,0.00,,,0.00,0,WeatherCatV1.20B785,2013-09-04 05:41:00,
2013-09-04 01:42:00,56.0,52.5,30.00,NW,304,1.0,1.0,88,0.00,,,0.00,0,WeatherCatV1.20B785,2013-09-04 05:42:00,
2013-09-04 01:43:00,56.0,52.5,30.00,NW,304,0.0,1.0,88,0.00,,,0.00,0,WeatherCatV1.20B785,2013-09-04 05:43:00,
2013-09-04 01:45:00,55.9,52.7,30.00,NW,304,1.0,1.0,89,0.00,,,0.00,0,WeatherCatV1.20B785,2013-09-04 05:45:00,
2013-09-04 01:47:00,55.8,52.3,30.00,NW,304,0.0,0.0,88,0.00,,,0.00,0,WeatherCatV1.20B785,2013-09-04 05:47:00,
2013-09-04 01:48:00,55.8,52.3,29.99,NW,304,0.0,0.0,88,0.00,,,0.00,0,WeatherCatV1.20B785,2013-09-04 05:48:00,
2013-09-04 01:49:00,55.7,52.2,30.00,NW,304,1.0,1.0,88,0.00,,,0.00,0,WeatherCatV1.20B785,2013-09-04 05:49:00,
2013-09-04 01:50:00,55.7,52.2,30.00,NW,304,0.0,2.0,88,0.00,,,0.00,0,WeatherCatV1.20B785,2013-09-04 05:50:00,
2013-09-04 01:52:00,55.7,52.2,30.00,NW,304,1.0,2.0,88,0.00,,,0.00,0,WeatherCatV1.20B785,2013-09-04 05:52:00,
2013-09-04 01:53:00,55.7,52.2,30.00,NW,304,1.0,2.0,88,0.00,,,0.00,0,WeatherCatV1.20B785,2013-09-04 05:53:00,
2013-09-04 01:55:00,55.6,52.1,30.00,NW,304,0.0,2.0,88,0.00,,,0.00,0,WeatherCatV1.20B785,2013-09-04 05:55:00,
2013-09-04 01:56:00,55.6,52.1,30.00,NW,304,0.0,2.0,88,0.00,,,0.00,0,WeatherCatV1.20B785,2013-09-04 05:56:00,
2013-09-04 01:57:00,55.6,52.1,30.00,NW,304,0.0,0.0,88,0.00,,,0.00,0,WeatherCatV1.20B785,2013-09-04 05:57:00,
2013-09-04 01:59:00,55.6,52.1,30.00,NW,304,0.0,0.0,88,0.00,,,0.00,0,WeatherCatV1.20B785,2013-09-04 05:59:00,
2013-09-04 02:00:00,55.6,52.1,30.00,NW,304,1.0,1.0,88,0.00,,,0.00,0,WeatherCatV1.20B785,2013-09-04 06:00:00,
2013-09-04 02:01:00,55.5,52.0,30.00,NW,304,0.0,1.0,88,0.00,,,0.00,0,WeatherCatV1.20B785,2013-09-04 06:01:00,
2013-09-04 02:03:00,55.5,52.0,30.00,NW,304,0.0,0.0,88,0.00,,,0.00,0,WeatherCatV1.20B785,2013-09-04 06:03:00,
2013-09-04 02:04:00,55.5,52.0,30.00,NW,304,0.0,0.0,88,0.00,,,0.00,0,WeatherCatV1.20B785,2013-09-04 06:04:00,
2013-09-04 02:05:00,55.4,51.9,30.00,NW,304,0.0,0.0,88,0.00,,,0.00,0,WeatherCatV1.20B785,2013-09-04 06:05:00,
2013-09-04 02:06:00,55.4,51.9,30.00,NW,304,0.0,0.0,88,0.00,,,0.00,0,WeatherCatV1.20B785,2013-09-04 06:06:00,
2013-09-04 02:08:00,55.3,51.8,30.00,NW,304,0.0,0.0,88,0.00,,,0.00,0,WeatherCatV1.20B785,2013-09-04 06:08:00,
2013-09-04 02:09:00,55.3,51.8,30.00,NW,304,0.0,0.0,88,0.00,,,0.00,0,WeatherCatV1.20B785,2013-09-04 06:09:00,
2013-09-04 02:11:00,55.4,51.9,30.00,NW,304,1.0,2.0,88,0.00,,,0.00,0,WeatherCatV1.20B785,2013-09-04 06:11:00,
2013-09-04 02:13:00,55.4,51.6,30.00,NW,304,1.0,1.0,87,0.00,,,0.00,0,WeatherCatV1.20B785,2013-09-04 06:13:00,
2013-09-04 02:14:00,55.4,51.6,30.00,NW,304,0.0,1.0,87,0.00,,,0.00,0,WeatherCatV1.20B785,2013-09-04 06:14:00,
2013-09-04 02:15:00,55.4,51.6,30.00,NW,304,0.0,1.0,87,0.00,,,0.00,0,WeatherCatV1.20B785,2013-09-04 06:15:00,
2013-09-04 02:16:00,55.4,51.6,30.00,NW,304,0.0,1.0,87,0.00,,,0.00,0,WeatherCatV1.20B785,2013-09-04 06:16:00,
2013-09-04 02:18:00,55.3,51.8,30.00,NW,304,0.0,0.0,88,0.00,,,0.00,0,WeatherCatV1.20B785,2013-09-04 06:18:00,
2013-09-04 02:19:00,55.3,51.8,30.00,NW,304,0.0,0.0,88,0.00,,,0.00,0,WeatherCatV1.20B785,2013-09-04 06:19:00,
2013-09-04 02:21:00,55.3,51.5,30.00,NW,304,0.0,0.0,87,0.00,,,0.00,0,WeatherCatV1.20B785,2013-09-04 06:21:00,
2013-09-04 02:23:00,55.3,51.8,30.00,NW,304,0.0,2.0,88,0.00,,,0.00,0,WeatherCatV1.20B785,2013-09-04 06:23:00,
2013-09-04 02:24:00,55.3,51.8,30.00,NW,304,0.0,1.0,88,0.00,,,0.00,0,WeatherCatV1.20B785,2013-09-04 06:24:00,
2013-09-04 02:25:00,55.2,51.7,30.00,NW,304,0.0,1.0,88,0.00,,,0.00,0,WeatherCatV1.20B785,2013-09-04 06:25:00,
2013-09-04 02:26:00,55.2,51.7,30.00,NW,304,0.0,1.0,88,0.00,,,0.00,0,WeatherCatV1.20B785,2013-09-04 06:26:00,
2013-09-04 02:27:00,55.1,51.6,30.00,NW,304,0.0,1.0,88,0.00,,,0.00,0,WeatherCatV1.20B785,2013-09-04 06:27:00,
2013-09-04 02:28:00,55.1,51.6,30.00,NW,304,0.0,0.0,88,0.00,,,0.00,0,WeatherCatV1.20B785,2013-09-04 06:28:00,
2013-09-04 02:30:00,55.1,51.6,30.00,NW,304,0.0,0.0,88,0.00,,,0.00,0,WeatherCatV1.20B785,2013-09-04 06:30:00,
2013-09-04 02:33:00,55.0,51.5,30.00,NW,304,0.0,0.0,88,0.00,,,0.00,0,WeatherCatV1.20B785,2013-09-04 06:33:00,
2013-09-04 02:34:00,55.0,51.5,30.00,NW,304,0.0,0.0,88,0.00,,,0.00,0,WeatherCatV1.20B785,2013-09-04 06:34:00,
2013-09-04 02:35:00,55.0,51.5,30.00,NW,304,0.0,0.0,88,0.00,,,0.00,0,WeatherCatV1.20B785,2013-09-04 06:35:00,
2013-09-04 02:38:00,55.0,51.5,30.00,NW,304,0.0,0.0,88,0.00,,,0.00,0,WeatherCatV1.20B785,2013-09-04 06:38:00,
2013-09-04 02:39:00,55.0,51.5,30.00,NW,304,1.0,1.0,88,0.00,,,0.00,0,WeatherCatV1.20B785,2013-09-04 06:39:00,
2013-09-04 02:40:00,54.9,51.4,30.00,NW,304,0.0,1.0,88,0.00,,,0.00,0,WeatherCatV1.20B785,2013-09-04 06:40:00,
2013-09-04 02:41:00,54.9,51.4,30.00,NW,304,1.0,1.0,88,0.00,,,0.00,0,WeatherCatV1.20B785,2013-09-04 06:41:00,
2013-09-04 02:43:00,54.8,51.3,30.00,NW,304,0.0,0.0,88,0.00,,,0.00,0,WeatherCatV1.20B785,2013-09-04 06:43:00,
2013-09-04 02:44:00,54.7,51.2,30.00,NW,304,0.0,0.0,88,0.00,,,0.00,0,WeatherCatV1.20B785,2013-09-04 06:44:00,
2013-09-04 02:45:00,54.6,51.1,30.00,NW,304,0.0,0.0,88,0.00,,,0.00,0,WeatherCatV1.20B785,2013-09-04 06:45:00,
2013-09-04 02:48:00,54.5,51.0,30.00,NW,304,0.0,1.0,88,0.00,,,0.00,0,WeatherCatV1.20B785,2013-09-04 06:48:00,
2013-09-04 02:49:00,54.5,51.0,30.00,NW,304,0.0,0.0,88,0.00,,,0.00,0,WeatherCatV1.20B785,2013-09-04 06:49:00,
2013-09-04 02:51:00,54.5,51.0,30.00,NW,304,0.0,0.0,88,0.00,,,0.00,0,WeatherCatV1.20B785,2013-09-04 06:51:00,
2013-09-04 02:54:00,54.4,50.9,30.00,NW,304,0.0,2.0,88,0.00,,,0.00,0,WeatherCatV1.20B785,2013-09-04 06:54:00,
2013-09-04 02:55:00,54.4,50.9,30.00,NW,304,1.0,1.0,88,0.00,,,0.00,0,WeatherCatV1.20B785,2013-09-04 06:55:00,
2013-09-04 02:56:00,54.3,50.8,30.00,NW,304,0.0,1.0,88,0.00,,,0.00,0,WeatherCatV1.20B785,2013-09-04 06:56:00,
2013-09-04 02:59:00,54.4,50.6,30.00,NW,304,0.0,0.0,87,0.00,,,0.00,0,WeatherCatV1.20B785,2013-09-04 06:59:00,
2013-09-04 03:00:00,54.5,50.4,30.00,NW,304,0.0,1.0,86,0.00,,,0.00,0,WeatherCatV1.20B785,2013-09-04 07:00:00,
2013-09-04 03:01:00,54.5,50.4,30.00,NW,304,0.0,1.0,86,0.00,,,0.00,0,WeatherCatV1.20B785,2013-09-04 07:01:00,
2013-09-04 03:02:00,54.6,50.5,30.00,NW,304,0.0,0.0,86,0.00,,,0.00,0,WeatherCatV1.20B785,2013-09-04 07:02:00,
2013-09-04 03:04:00,54.6,50.8,30.00,NW,304,0.0,1.0,87,0.00,,,0.00,0,WeatherCatV1.20B785,2013-09-04 07:04:00,
2013-09-04 03:05:00,54.6,50.8,30.00,NW,304,0.0,0.0,87,0.00,,,0.00,0,WeatherCatV1.20B785,2013-09-04 07:05:00,
2013-09-04 03:06:00,54.6,50.5,30.00,NW,304,0.0,1.0,86,0.00,,,0.00,0,WeatherCatV1.20B785,2013-09-04 07:06:00,
2013-09-04 03:07:00,54.6,50.5,30.00,NW,304,0.0,1.0,86,0.00,,,0.00,0,WeatherCatV1.20B785,2013-09-04 07:07:00,
2013-09-04 03:09:00,54.7,50.6,30.00,NW,304,0.0,1.0,86,0.00,,,0.00,0,WeatherCatV1.20B785,2013-09-04 07:09:00,
2013-09-04 03:10:00,54.7,50.6,30.00,NW,304,1.0,1.0,86,0.00,,,0.00,0,WeatherCatV1.20B785,2013-09-04 07:10:00,
2013-09-04 03:12:00,54.6,50.8,30.00,NW,304,0.0,0.0,87,0.00,,,0.00,0,WeatherCatV1.20B785,2013-09-04 07:12:00,
2013-09-04 03:13:00,54.5,50.7,30.00,NW,304,0.0,0.0,87,0.00,,,0.00,0,WeatherCatV1.20B785,2013-09-04 07:13:00,
2013-09-04 03:14:00,54.5,51.0,30.00,NW,304,0.0,0.0,88,0.00,,,0.00,0,WeatherCatV1.20B785,2013-09-04 07:14:00,
2013-09-04 03:15:00,54.4,50.9,30.00,NW,304,0.0,0.0,88,0.00,,,0.00,0,WeatherCatV1.20B785,2013-09-04 07:15:00,
2013-09-04 03:17:00,54.3,50.8,30.00,NW,304,0.0,0.0,88,0.00,,,0.00,0,WeatherCatV1.20B785,2013-09-04 07:17:00,
2013-09-04 03:19:00,54.2,50.7,30.00,NW,304,0.0,0.0,88,0.00,,,0.00,0,WeatherCatV1.20B785,2013-09-04 07:19:00,
2013-09-04 03:20:00,54.3,50.8,30.00,NW,304,0.0,0.0,88,0.00,,,0.00,0,WeatherCatV1.20B785,2013-09-04 07:20:00,
2013-09-04 03:25:00,54.2,50.4,30.00,NW,304,0.0,0.0,87,0.00,,,0.00,0,WeatherCatV1.20B785,2013-09-04 07:25:00,
2013-09-04 03:27:00,54.1,50.3,30.00,NW,304,0.0,2.0,87,0.00,,,0.00,0,WeatherCatV1.20B785,2013-09-04 07:27:00,
2013-09-04 03:30:00,54.1,50.3,30.00,NW,304,0.0,0.0,87,0.00,,,0.00,0,WeatherCatV1.20B785,2013-09-04 07:30:00,
2013-09-04 03:31:00,54.1,50.3,30.00,NW,304,0.0,0.0,87,0.00,,,0.00,0,WeatherCatV1.20B785,2013-09-04 07:31:00,
2013-09-04 03:32:00,54.1,50.3,30.00,NW,304,0.0,0.0,87,0.00,,,0.00,0,WeatherCatV1.20B785,2013-09-04 07:32:00,
2013-09-04 03:36:00,54.0,50.2,30.00,NW,304,0.0,0.0,87,0.00,,,0.00,0,WeatherCatV1.20B785,2013-09-04 07:36:00,
2013-09-04 03:37:00,54.0,50.2,30.00,NW,304,0.0,1.0,87,0.00,,,0.00,0,WeatherCatV1.20B785,2013-09-04 07:37:00,
2013-09-04 03:38:00,54.0,50.2,30.00,NW,304,0.0,1.0,87,0.00,,,0.00,0,WeatherCatV1.20B785,2013-09-04 07:38:00,
2013-09-04 03:41:00,54.0,50.2,30.00,NW,304,0.0,0.0,87,0.00,,,0.00,0,WeatherCatV1.20B785,2013-09-04 07:41:00,
2013-09-04 03:42:00,54.0,50.2,30.00,NW,304,0.0,1.0,87,0.00,,,0.00,0,WeatherCatV1.20B785,2013-09-04 07:42:00,
2013-09-04 03:43:00,54.0,50.2,30.00,NW,304,0.0,1.0,87,0.00,,,0.00,0,WeatherCatV1.20B785,2013-09-04 07:43:00,
2013-09-04 03:45:00,54.0,50.2,30.00,NW,304,0.0,1.0,87,0.00,,,0.00,0,WeatherCatV1.20B785,2013-09-04 07:45:00,
2013-09-04 03:46:00,54.0,50.2,30.00,NW,304,0.0,2.0,87,0.00,,,0.00,0,WeatherCatV1.20B785,2013-09-04 07:46:00,
2013-09-04 03:47:00,54.0,50.2,30.00,NW,304,0.0,2.0,87,0.00,,,0.00,0,WeatherCatV1.20B785,2013-09-04 07:47:00,
2013-09-04 03:48:00,54.0,50.2,30.00,NW,304,0.0,0.0,87,0.00,,,0.00,0,WeatherCatV1.20B785,2013-09-04 07:48:00,
2013-09-04 03:51:00,54.0,49.9,30.00,NW,304,0.0,1.0,86,0.00,,,0.00,0,WeatherCatV1.20B785,2013-09-04 07:51:00,
2013-09-04 03:52:00,54.1,50.0,30.00,NW,304,0.0,1.0,86,0.00,,,0.00,0,WeatherCatV1.20B785,2013-09-04 07:52:00,
2013-09-04 03:53:00,54.1,50.0,30.00,NW,304,0.0,2.0,86,0.00,,,0.00,0,WeatherCatV1.20B785,2013-09-04 07:53:00,
2013-09-04 03:54:00,54.1,50.3,30.00,NW,304,0.0,2.0,87,0.00,,,0.00,0,WeatherCatV1.20B785,2013-09-04 07:54:00,
2013-09-04 03:57:00,53.9,50.1,30.00,NW,306,1.0,3.0,87,0.00,,,0.00,0,WeatherCatV1.20B785,2013-09-04 07:57:00,
2013-09-04 03:58:00,53.9,50.1,30.00,NW,305,1.0,3.0,87,0.00,,,0.00,0,WeatherCatV1.20B785,2013-09-04 07:58:00,
2013-09-04 03:59:00,53.9,50.1,30.00,NW,306,0.0,1.0,87,0.00,,,0.00,0,WeatherCatV1.20B785,2013-09-04 07:59:00,
2013-09-04 04:02:00,54.1,50.0,30.00,WNW,300,2.0,3.0,86,0.00,,,0.00,0,WeatherCatV1.20B785,2013-09-04 08:02:00,
2013-09-04 04:03:00,54.1,50.0,30.00,WNW,300,0.0,3.0,86,0.00,,,0.00,0,WeatherCatV1.20B785,2013-09-04 08:03:00,
2013-09-04 04:05:00,54.2,50.1,30.01,WNW,300,0.0,1.0,86,0.00,,,0.00,0,WeatherCatV1.20B785,2013-09-04 08:05:00,
2013-09-04 04:06:00,54.2,50.1,30.01,WNW,300,0.0,0.0,86,0.00,,,0.00,0,WeatherCatV1.20B785,2013-09-04 08:06:00,
2013-09-04 04:07:00,54.2,50.1,30.01,WNW,300,0.0,1.0,86,0.00,,,0.00,0,WeatherCatV1.20B785,2013-09-04 08:07:00,
2013-09-04 04:08:00,54.2,50.1,30.01,WNW,300,0.0,1.0,86,0.00,,,0.00,0,WeatherCatV1.20B785,2013-09-04 08:08:00,
2013-09-04 04:11:00,54.2,50.4,30.01,WNW,300,0.0,1.0,87,0.00,,,0.00,0,WeatherCatV1.20B785,2013-09-04 08:11:00,
2013-09-04 04:12:00,54.2,50.4,30.01,WNW,293,0.0,0.0,87,0.00,,,0.00,0,WeatherCatV1.20B785,2013-09-04 08:12:00,
2013-09-04 04:13:00,54.2,50.4,30.01,WNW,293,0.0,0.0,87,0.00,,,0.00,0,WeatherCatV1.20B785,2013-09-04 08:13:00,
2013-09-04 04:14:00,54.2,50.4,30.01,NNE,17,1.0,1.0,87,0.00,,,0.00,0,WeatherCatV1.20B785,2013-09-04 08:14:00,
2013-09-04 04:16:00,54.2,50.4,30.01,NE,50,0.0,0.0,87,0.00,,,0.00,0,WeatherCatV1.20B785,2013-09-04 08:16:00,
2013-09-04 04:17:00,54.2,50.1,30.01,NE,52,0.0,1.0,86,0.00,,,0.00,0,WeatherCatV1.20B785,2013-09-04 08:17:00,
2013-09-04 04:18:00,54.2,50.1,30.01,NE,52,0.0,1.0,86,0.00,,,0.00,0,WeatherCatV1.20B785,2013-09-04 08:18:00,
2013-09-04 04:19:00,54.2,50.4,30.01,NE,42,1.0,1.0,87,0.00,,,0.00,0,WeatherCatV1.20B785,2013-09-04 08:19:00,
2013-09-04 04:20:00,54.2,50.4,30.01,NE,43,0.0,1.0,87,0.00,,,0.00,0,WeatherCatV1.20B785,2013-09-04 08:20:00,
2013-09-04 04:22:00,54.1,50.3,30.01,NE,43,0.0,0.0,87,0.00,,,0.00,0,WeatherCatV1.20B785,2013-09-04 08:22:00,
2013-09-04 04:23:00,54.1,50.3,30.01,North,349,0.0,1.0,87,0.00,,,0.00,0,WeatherCatV1.20B785,2013-09-04 08:23:00,
2013-09-04 04:24:00,54.0,50.2,30.02,NNW,338,1.0,2.0,87,0.00,,,0.00,0,WeatherCatV1.20B785,2013-09-04 08:24:00,
2013-09-04 04:27:00,53.9,50.1,30.01,NNW,338,0.0,0.0,87,0.00,,,0.00,0,WeatherCatV1.20B785,2013-09-04 08:27:00,
2013-09-04 04:28:00,53.9,50.1,30.01,NNW,338,0.0,0.0,87,0.00,,,0.00,0,WeatherCatV1.20B785,2013-09-04 08:28:00,
2013-09-04 04:29:00,53.8,50.0,30.01,NNW,338,0.0,0.0,87,0.00,,,0.00,0,WeatherCatV1.20B785,2013-09-04 08:29:00,
2013-09-04 04:31:00,53.8,50.0,30.01,NNW,338,0.0,0.0,87,0.00,,,0.00,0,WeatherCatV1.20B785,2013-09-04 08:31:00,
2013-09-04 04:32:00,53.8,50.0,30.01,NNW,338,0.0,0.0,87,0.00,,,0.00,0,WeatherCatV1.20B785,2013-09-04 08:32:00,
2013-09-04 04:34:00,53.8,50.0,30.01,NNW,338,1.0,1.0,87,0.00,,,0.00,0,WeatherCatV1.20B785,2013-09-04 08:34:00,
2013-09-04 04:35:00,53.7,49.9,30.01,NNW,338,0.0,1.0,87,0.00,,,0.00,0,WeatherCatV1.20B785,2013-09-04 08:35:00,
2013-09-04 04:36:00,53.7,49.9,30.01,NNW,338,0.0,1.0,87,0.00,,,0.00,0,WeatherCatV1.20B785,2013-09-04 08:36:00,
2013-09-04 04:39:00,53.6,49.8,30.01,NNW,338,0.0,1.0,87,0.00,,,0.00,0,WeatherCatV1.20B785,2013-09-04 08:39:00,
2013-09-04 04:42:00,53.5,49.7,30.02,NNW,338,0.0,1.0,87,0.00,,,0.00,0,WeatherCatV1.20B785,2013-09-04 08:42:00,
2013-09-04 04:44:00,53.5,49.7,30.02,NNW,338,1.0,1.0,87,0.00,,,0.00,0,WeatherCatV1.20B785,2013-09-04 08:44:00,
2013-09-04 04:45:00,53.5,49.7,30.02,NNW,338,0.0,1.0,87,0.00,,,0.00,0,WeatherCatV1.20B785,2013-09-04 08:45:00,
2013-09-04 04:47:00,53.5,49.4,30.02,NNW,338,0.0,1.0,86,0.00,,,0.00,0,WeatherCatV1.20B785,2013-09-04 08:47:00,
2013-09-04 04:48:00,53.5,49.7,30.02,NNW,338,0.0,1.0,87,0.00,,,0.00,0,WeatherCatV1.20B785,2013-09-04 08:48:00,
2013-09-04 04:49:00,53.4,49.6,30.02,NNW,338,0.0,0.0,87,0.00,,,0.00,0,WeatherCatV1.20B785,2013-09-04 08:49:00,
2013-09-04 04:50:00,53.4,49.6,30.02,NNW,338,0.0,0.0,87,0.00,,,0.00,0,WeatherCatV1.20B785,2013-09-04 08:50:00,
2013-09-04 04:52:00,53.3,49.5,30.02,NNW,338,0.0,0.0,87,0.00,,,0.00,0,WeatherCatV1.20B785,2013-09-04 08:52:00,
2013-09-04 04:54:00,53.3,49.5,30.02,NNW,338,0.0,1.0,87,0.00,,,0.00,0,WeatherCatV1.20B785,2013-09-04 08:54:00,
2013-09-04 04:55:00,53.3,49.5,30.02,NNW,338,0.0,1.0,87,0.00,,,0.00,0,WeatherCatV1.20B785,2013-09-04 08:55:00,
2013-09-04 04:58:00,53.2,49.4,30.02,NNW,338,0.0,0.0,87,0.00,,,0.00,0,WeatherCatV1.20B785,2013-09-04 08:58:00,
2013-09-04 05:00:00,53.2,49.4,30.02,NNW,338,0.0,0.0,87,0.00,,,0.00,0,WeatherCatV1.20B785,2013-09-04 09:00:00,
2013-09-04 05:01:00,53.2,49.4,30.03,NNW,338,0.0,0.0,87,0.00,,,0.00,0,WeatherCatV1.20B785,2013-09-04 09:01:00,
2013-09-04 05:04:00,53.2,49.4,30.03,NNW,339,0.0,1.0,87,0.00,,,0.00,0,WeatherCatV1.20B785,2013-09-04 09:04:00,
2013-09-04 05:05:00,53.2,49.4,30.03,NNW,339,0.0,1.0,87,0.00,,,0.00,0,WeatherCatV1.20B785,2013-09-04 09:05:00,
2013-09-04 05:06:00,53.2,49.4,30.03,NNW,339,0.0,1.0,87,0.00,,,0.00,0,WeatherCatV1.20B785,2013-09-04 09:06:00,
2013-09-04 05:07:00,53.2,49.1,30.03,NNW,339,0.0,0.0,86,0.00,,,0.00,0,WeatherCatV1.20B785,2013-09-04 09:07:00,
2013-09-04 05:08:00,53.2,49.1,30.03,NNW,339,0.0,0.0,86,0.00,,,0.00,0,WeatherCatV1.20B785,2013-09-04 09:08:00,
2013-09-04 05:09:00,53.2,49.1,30.03,NNW,339,0.0,1.0,86,0.00,,,0.00,0,WeatherCatV1.20B785,2013-09-04 09:09:00,
2013-09-04 05:10:00,53.2,49.1,30.03,NNW,339,0.0,1.0,86,0.00,,,0.00,0,WeatherCatV1.20B785,2013-09-04 09:10:00,
2013-09-04 05:11:00,53.2,49.1,30.03,NNW,339,0.0,0.0,86,0.00,,,0.00,0,WeatherCatV1.20B785,2013-09-04 09:11:00,
2013-09-04 05:12:00,53.2,49.1,30.03,NNW,339,0.0,0.0,86,0.00,,,0.00,0,WeatherCatV1.20B785,2013-09-04 09:12:00,
2013-09-04 05:13:00,53.2,49.1,30.03,NNW,339,0.0,0.0,86,0.00,,,0.00,0,WeatherCatV1.20B785,2013-09-04 09:13:00,
2013-09-04 05:17:00,53.1,49.3,30.03,NNW,339,1.0,1.0,87,0.00,,,0.00,0,WeatherCatV1.20B785,2013-09-04 09:17:00,
2013-09-04 05:21:00,53.1,49.0,30.03,NNW,333,0.0,2.0,86,0.00,,,0.00,0,WeatherCatV1.20B785,2013-09-04 09:21:00,
2013-09-04 05:22:00,53.2,49.1,30.03,NNW,333,0.0,2.0,86,0.00,,,0.00,0,WeatherCatV1.20B785,2013-09-04 09:22:00,
2013-09-04 05:23:00,53.2,49.1,30.03,NNW,333,1.0,1.0,86,0.00,,,0.00,0,WeatherCatV1.20B785,2013-09-04 09:23:00,
2013-09-04 05:27:00,53.6,49.5,30.03,NNW,333,0.0,1.0,86,0.00,,,0.00,0,WeatherCatV1.20B785,2013-09-04 09:27:00,
2013-09-04 05:28:00,53.8,49.7,30.03,NNW,333,0.0,0.0,86,0.00,,,0.00,0,WeatherCatV1.20B785,2013-09-04 09:28:00,
2013-09-04 05:29:00,53.9,49.8,30.03,NNW,333,0.0,0.0,86,0.00,,,0.00,0,WeatherCatV1.20B785,2013-09-04 09:29:00,
2013-09-04 05:33:00,54.1,50.0,30.03,NNW,333,0.0,0.0,86,0.00,,,0.00,0,WeatherCatV1.20B785,2013-09-04 09:33:00,
2013-09-04 05:34:00,54.1,50.0,30.04,NNW,333,0.0,0.0,86,0.00,,,0.00,0,WeatherCatV1.20B785,2013-09-04 09:34:00,
2013-09-04 05:38:00,54.0,49.9,30.04,NNW,333,0.0,0.0,86,0.00,,,0.00,0,WeatherCatV1.20B785,2013-09-04 09:38:00,
2013-09-04 05:39:00,53.9,49.8,30.04,NNW,333,0.0,0.0,86,0.00,,,0.00,0,WeatherCatV1.20B785,2013-09-04 09:39:00,
2013-09-04 05:40:00,53.9,49.8,30.04,NNW,333,0.0,0.0,86,0.00,,,0.00,0,WeatherCatV1.20B785,2013-09-04 09:40:00,
2013-09-04 05:43:00,53.8,49.7,30.04,NNW,333,0.0,0.0,86,0.00,,,0.00,0,WeatherCatV1.20B785,2013-09-04 09:43:00,
2013-09-04 05:44:00,53.8,49.7,30.04,NNW,333,0.0,0.0,86,0.00,,,0.00,0,WeatherCatV1.20B785,2013-09-04 09:44:00,
2013-09-04 05:45:00,53.8,49.7,30.04,NNW,333,0.0,0.0,86,0.00,,,0.00,0,WeatherCatV1.20B785,2013-09-04 09:45:00,
2013-09-04 05:48:00,53.7,49.6,30.04,NNW,333,0.0,0.0,86,0.00,,,0.00,0,WeatherCatV1.20B785,2013-09-04 09:48:00,
2013-09-04 05:49:00,53.7,49.6,30.04,NNW,333,0.0,0.0,86,0.00,,,0.00,0,WeatherCatV1.20B785,2013-09-04 09:49:00,
2013-09-04 05:51:00,53.7,49.6,30.04,NNW,333,0.0,0.0,86,0.00,,,0.00,0,WeatherCatV1.20B785,2013-09-04 09:51:00,
2013-09-04 05:53:00,53.7,49.6,30.04,NNW,333,0.0,0.0,86,0.00,,,0.00,0,WeatherCatV1.20B785,2013-09-04 09:53:00,
2013-09-04 05:54:00,53.6,49.5,30.04,NNW,333,0.0,0.0,86,0.00,,,0.00,0,WeatherCatV1.20B785,2013-09-04 09:54:00,
2013-09-04 05:55:00,53.6,49.5,30.04,NNW,333,0.0,0.0,86,0.00,,,0.00,0,WeatherCatV1.20B785,2013-09-04 09:55:00,
2013-09-04 05:58:00,53.5,49.7,30.05,NNW,333,0.0,0.0,87,0.00,,,0.00,0,WeatherCatV1.20B785,2013-09-04 09:58:00,
2013-09-04 05:59:00,53.5,49.7,30.05,NNW,333,0.0,0.0,87,0.00,,,0.00,0,WeatherCatV1.20B785,2013-09-04 09:59:00,
2013-09-04 06:00:00,53.4,49.6,30.05,NNW,333,0.0,0.0,87,0.00,,,0.00,0,WeatherCatV1.20B785,2013-09-04 10:00:00,
2013-09-04 06:02:00,53.4,49.3,30.05,NNW,333,0.0,0.0,86,0.00,,,0.00,0,WeatherCatV1.20B785,2013-09-04 10:02:00,
2013-09-04 06:03:00,53.3,49.5,30.05,NNW,333,0.0,0.0,87,0.00,,,0.00,0,WeatherCatV1.20B785,2013-09-04 10:03:00,
2013-09-04 06:04:00,53.3,49.2,30.05,NNW,333,0.0,0.0,86,0.00,,,0.00,0,WeatherCatV1.20B785,2013-09-04 10:04:00,
2013-09-04 06:05:00,53.3,49.2,30.05,NNW,333,0.0,0.0,86,0.00,,,0.00,0,WeatherCatV1.20B785,2013-09-04 10:05:00,
2013-09-04 06:06:00,53.3,49.2,30.05,NNW,333,0.0,0.0,86,0.00,,,0.00,0,WeatherCatV1.20B785,2013-09-04 10:06:00,
2013-09-04 06:07:00,53.3,49.2,30.05,NNW,333,0.0,0.0,86,0.00,,,0.00,0,WeatherCatV1.20B785,2013-09-04 10:07:00,
2013-09-04 06:08:00,53.3,49.2,30.05,NNW,333,0.0,0.0,86,0.00,,,0.00,0,WeatherCatV1.20B785,2013-09-04 10:08:00,
2013-09-04 06:10:00,53.2,49.1,30.05,NNW,333,0.0,0.0,86,0.00,,,0.00,0,WeatherCatV1.20B785,2013-09-04 10:10:00,
2013-09-04 06:11:00,53.2,49.1,30.05,NNW,333,0.0,0.0,86,0.00,,,0.00,0,WeatherCatV1.20B785,2013-09-04 10:11:00,
2013-09-04 06:12:00,53.2,49.1,30.05,NNW,333,0.0,0.0,86,0.00,,,0.00,0,WeatherCatV1.20B785,2013-09-04 10:12:00,
2013-09-04 06:14:00,53.1,49.3,30.05,NNW,333,0.0,0.0,87,0.00,,,0.00,0,WeatherCatV1.20B785,2013-09-04 10:14:00,
2013-09-04 06:15:00,53.1,49.3,30.05,NNW,333,0.0,0.0,87,0.00,,,0.00,0,WeatherCatV1.20B785,2013-09-04 10:15:00,
2013-09-04 06:16:00,53.1,49.3,30.05,NNW,333,0.0,0.0,87,0.00,,,0.00,0,WeatherCatV1.20B785,2013-09-04 10:16:00,
2013-09-04 06:17:00,53.0,49.2,30.05,NNW,333,0.0,0.0,87,0.00,,,0.00,0,WeatherCatV1.20B785,2013-09-04 10:17:00,
2013-09-04 06:19:00,52.9,49.1,30.05,NNW,333,0.0,0.0,87,0.00,,,0.00,0,WeatherCatV1.20B785,2013-09-04 10:19:00,
2013-09-04 06:21:00,52.8,49.0,30.05,NNW,333,0.0,0.0,87,0.00,,,0.00,0,WeatherCatV1.20B785,2013-09-04 10:21:00,
2013-09-04 06:22:00,52.7,48.9,30.06,NNW,333,0.0,0.0,87,0.00,,,0.00,0,WeatherCatV1.20B785,2013-09-04 10:22:00,
2013-09-04 06:23:00,52.7,48.9,30.06,NNW,333,0.0,0.0,87,0.00,,,0.00,0,WeatherCatV1.20B785,2013-09-04 10:23:00,
2013-09-04 06:24:00,52.6,48.8,30.06,NNW,333,0.0,0.0,87,0.00,,,0.00,0,WeatherCatV1.20B785,2013-09-04 10:24:00,
2013-09-04 06:26:00,52.6,48.8,30.05,NNW,333,0.0,0.0,87,0.00,,,0.00,0,WeatherCatV1.20B785,2013-09-04 10:26:00,
2013-09-04 06:27:00,52.5,48.7,30.05,NNW,333,0.0,0.0,87,0.00,,,0.00,0,WeatherCatV1.20B785,2013-09-04 10:27:00,
2013-09-04 06:28:00,52.5,48.7,30.06,NNW,333,0.0,0.0,87,0.00,,,0.00,0,WeatherCatV1.20B785,2013-09-04 10:28:00,
2013-09-04 06:29:00,52.5,48.7,30.05,NNW,333,0.0,0.0,87,0.00,,,0.00,0,WeatherCatV1.20B785,2013-09-04 10:29:00,
2013-09-04 06:31:00,52.5,48.7,30.06,NNW,333,0.0,0.0,87,0.00,,,0.00,0,WeatherCatV1.20B785,2013-09-04 10:31:00,
2013-09-04 06:32:00,52.5,48.7,30.05,NNW,333,0.0,0.0,87,0.00,,,0.00,0,WeatherCatV1.20B785,2013-09-04 10:32:00,
2013-09-04 06:33:00,52.5,48.4,30.06,NNW,333,0.0,0.0,86,0.00,,,0.00,0,WeatherCatV1.20B785,2013-09-04 10:33:00,
2013-09-04 06:35:00,52.5,48.4,30.06,NNW,333,0.0,0.0,86,0.00,,,0.00,0,WeatherCatV1.20B785,2013-09-04 10:35:00,
2013-09-04 06:37:00,52.4,48.6,30.06,NNW,333,0.0,0.0,87,0.00,,,0.00,0,WeatherCatV1.20B785,2013-09-04 10:37:00,
2013-09-04 06:38:00,52.4,48.3,30.06,NNW,333,0.0,0.0,86,0.00,,,0.00,0,WeatherCatV1.20B785,2013-09-04 10:38:00,
2013-09-04 06:39:00,52.4,48.6,30.06,NNW,333,0.0,0.0,87,0.00,,,0.00,0,WeatherCatV1.20B785,2013-09-04 10:39:00,
2013-09-04 06:40:00,52.4,48.6,30.06,NNW,333,0.0,0.0,87,0.00,,,0.00,0,WeatherCatV1.20B785,2013-09-04 10:40:00,
2013-09-04 06:42:00,52.3,48.5,30.06,NNW,333,0.0,0.0,87,0.00,,,0.00,0,WeatherCatV1.20B785,2013-09-04 10:42:00,
2013-09-04 06:43:00,52.2,48.5,30.06,NNW,333,1.0,1.0,87,0.00,,,0.00,0,WeatherCatV1.20B785,2013-09-04 10:43:00,
2013-09-04 06:44:00,52.2,48.5,30.06,NNW,333,0.0,1.0,87,0.00,,,0.00,0,WeatherCatV1.20B785,2013-09-04 10:44:00,
2013-09-04 06:45:00,52.1,48.3,30.06,NNW,333,0.0,1.0,87,0.00,,,0.00,5,WeatherCatV1.20B785,2013-09-04 10:45:00,
2013-09-04 06:47:00,51.9,48.2,30.06,NNW,333,0.0,2.0,87,0.00,,,0.00,5,WeatherCatV1.20B785,2013-09-04 10:47:00,
2013-09-04 06:48:00,51.9,48.2,30.06,NNW,333,0.0,0.0,87,0.00,,,0.00,5,WeatherCatV1.20B785,2013-09-04 10:48:00,
2013-09-04 06:49:00,51.8,48.0,30.06,NNW,333,0.0,0.0,87,0.00,,,0.00,5,WeatherCatV1.20B785,2013-09-04 10:49:00,
2013-09-04 06:50:00,51.8,48.0,30.06,NNW,333,0.0,0.0,87,0.00,,,0.00,5,WeatherCatV1.20B785,2013-09-04 10:50:00,
2013-09-04 06:53:00,51.7,48.0,30.06,NNW,333,0.0,0.0,87,0.00,,,0.00,7,WeatherCatV1.20B785,2013-09-04 10:53:00,
2013-09-04 06:54:00,51.6,47.9,30.07,NNW,333,1.0,1.0,87,0.00,,,0.00,7,WeatherCatV1.20B785,2013-09-04 10:54:00,
2013-09-04 06:55:00,51.6,47.9,30.07,NNW,333,0.0,1.0,87,0.00,,,0.00,7,WeatherCatV1.20B785,2013-09-04 10:55:00,
2013-09-04 06:57:00,51.6,47.9,30.07,NNW,333,0.0,0.0,87,0.00,,,0.00,9,WeatherCatV1.20B785,2013-09-04 10:57:00,
2013-09-04 06:58:00,51.5,47.8,30.07,NNW,333,0.0,1.0,87,0.00,,,0.00,11,WeatherCatV1.20B785,2013-09-04 10:58:00,
2013-09-04 06:59:00,51.5,47.8,30.07,NNW,333,0.0,1.0,87,0.00,,,0.00,11,WeatherCatV1.20B785,2013-09-04 10:59:00,
2013-09-04 07:00:00,51.5,47.8,30.07,NNW,333,0.0,0.0,87,0.00,,,0.00,11,WeatherCatV1.20B785,2013-09-04 11:00:00,
2013-09-04 07:03:00,51.5,47.8,30.07,NNW,333,0.0,0.0,87,0.00,,,0.00,14,WeatherCatV1.20B785,2013-09-04 11:03:00,
2013-09-04 07:04:00,51.5,47.8,30.07,NNW,333,0.0,1.0,87,0.00,,,0.00,14,WeatherCatV1.20B785,2013-09-04 11:04:00,
2013-09-04 07:05:00,51.5,47.5,30.07,NNW,333,0.0,0.0,86,0.00,,,0.00,18,WeatherCatV1.20B785,2013-09-04 11:05:00,
2013-09-04 07:06:00,51.5,47.5,30.07,NNW,333,0.0,0.0,86,0.00,,,0.00,18,WeatherCatV1.20B785,2013-09-04 11:06:00,
2013-09-04 07:08:00,51.7,47.7,30.07,NNW,333,1.0,1.0,86,0.00,,,0.00,21,WeatherCatV1.20B785,2013-09-04 11:08:00,
2013-09-04 07:09:00,51.8,47.8,30.07,NE,39,1.0,1.0,86,0.00,,,0.00,25,WeatherCatV1.20B785,2013-09-04 11:09:00,
2013-09-04 07:10:00,51.8,47.8,30.07,NE,39,0.0,1.0,86,0.00,,,0.00,28,WeatherCatV1.20B785,2013-09-04 11:10:00,
2013-09-04 07:11:00,51.8,47.8,30.07,NE,39,0.0,1.0,86,0.00,,,0.00,28,WeatherCatV1.20B785,2013-09-04 11:11:00,
2013-09-04 07:13:00,52.1,48.0,30.07,NE,39,0.0,1.0,86,0.00,,,0.00,32,WeatherCatV1.20B785,2013-09-04 11:13:00,
2013-09-04 07:14:00,52.3,48.2,30.07,NE,39,0.0,0.0,86,0.00,,,0.00,35,WeatherCatV1.20B785,2013-09-04 11:14:00,
2013-09-04 07:16:00,52.5,48.4,30.07,NE,40,0.0,0.0,86,0.00,,,0.00,37,WeatherCatV1.20B785,2013-09-04 11:16:00,
2013-09-04 07:18:00,52.7,48.6,30.07,NE,40,0.0,0.0,86,0.00,,,0.00,46,WeatherCatV1.20B785,2013-09-04 11:18:00,
2013-09-04 07:19:00,52.7,48.6,30.07,NE,40,0.0,0.0,86,0.00,,,0.00,47,WeatherCatV1.20B785,2013-09-04 11:19:00,
2013-09-04 07:20:00,52.8,48.7,30.07,NE,40,0.0,0.0,86,0.00,,,0.00,49,WeatherCatV1.20B785,2013-09-04 11:20:00,
2013-09-04 07:21:00,52.9,48.8,30.07,NE,40,0.0,0.0,86,0.00,,,0.00,51,WeatherCatV1.20B785,2013-09-04 11:21:00,
2013-09-04 07:24:00,53.1,49.0,30.07,NE,40,0.0,0.0,86,0.00,,,0.00,58,WeatherCatV1.20B785,2013-09-04 11:24:00,
2013-09-04 07:26:00,53.2,49.1,30.07,NE,40,0.0,1.0,86,0.00,,,0.00,65,WeatherCatV1.20B785,2013-09-04 11:26:00,
2013-09-04 07:28:00,53.5,49.4,30.08,NE,40,0.0,0.0,86,0.00,,,0.00,74,WeatherCatV1.20B785,2013-09-04 11:28:00,
2013-09-04 07:29:00,53.5,49.4,30.08,NE,40,0.0,0.0,86,0.00,,,0.00,74,WeatherCatV1.20B785,2013-09-04 11:29:00,
2013-09-04 07:30:00,53.6,49.5,30.08,NE,40,0.0,0.0,86,0.00,,,0.00,79,WeatherCatV1.20B785,2013-09-04 11:30:00,
2013-09-04 07:31:00,53.7,49.6,30.08,NE,40,0.0,0.0,86,0.00,,,0.00,81,WeatherCatV1.20B785,2013-09-04 11:31:00,
2013-09-04 07:32:00,53.8,49.7,30.08,NE,40,0.0,0.0,86,0.00,,,0.00,84,WeatherCatV1.20B785,2013-09-04 11:32:00,
2013-09-04 07:33:00,53.9,49.8,30.08,NE,40,0.0,0.0,86,0.00,,,0.00,90,WeatherCatV1.20B785,2013-09-04 11:33:00,
2013-09-04 07:34:00,53.9,49.8,30.08,NE,40,0.0,0.0,86,0.00,,,0.00,90,WeatherCatV1.20B785,2013-09-04 11:34:00,
2013-09-04 07:35:00,54.0,49.9,30.08,NE,40,0.0,0.0,86,0.00,,,0.00,91,WeatherCatV1.20B785,2013-09-04 11:35:00,
2013-09-04 07:36:00,54.1,50.0,30.08,NE,40,0.0,0.0,86,0.00,,,0.00,95,WeatherCatV1.20B785,2013-09-04 11:36:00,
2013-09-04 07:37:00,54.1,50.0,30.08,NE,40,0.0,1.0,86,0.00,,,0.00,100,WeatherCatV1.20B785,2013-09-04 11:37:00,
2013-09-04 07:39:00,54.2,50.1,30.08,NE,40,0.0,0.0,86,0.00,,,0.00,107,WeatherCatV1.20B785,2013-09-04 11:39:00,
2013-09-04 07:40:00,54.2,50.1,30.08,NE,40,0.0,0.0,86,0.00,,,0.00,107,WeatherCatV1.20B785,2013-09-04 11:40:00,
2013-09-04 07:41:00,54.3,50.2,30.08,NE,40,0.0,0.0,86,0.00,,,0.00,111,WeatherCatV1.20B785,2013-09-04 11:41:00,
2013-09-04 07:42:00,54.4,50.3,30.08,NE,40,0.0,0.0,86,0.00,,,0.00,116,WeatherCatV1.20B785,2013-09-04 11:42:00,
2013-09-04 07:44:00,54.6,50.5,30.08,NE,40,0.0,0.0,86,0.00,,,0.00,121,WeatherCatV1.20B785,2013-09-04 11:44:00,
2013-09-04 07:45:00,54.6,50.5,30.08,NE,40,0.0,0.0,86,0.00,,,0.00,125,WeatherCatV1.20B785,2013-09-04 11:45:00,
2013-09-04 07:46:00,54.8,50.4,30.08,NE,40,0.0,0.0,85,0.00,,,0.00,130,WeatherCatV1.20B785,2013-09-04 11:46:00,
2013-09-04 07:47:00,54.9,50.5,30.08,NE,40,0.0,0.0,85,0.00,,,0.00,130,WeatherCatV1.20B785,2013-09-04 11:47:00,
2013-09-04 07:48:00,55.0,50.6,30.08,NE,40,0.0,0.0,85,0.00,,,0.00,134,WeatherCatV1.20B785,2013-09-04 11:48:00,
2013-09-04 07:49:00,55.2,51.1,30.08,NE,40,0.0,0.0,86,0.00,,,0.00,139,WeatherCatV1.20B785,2013-09-04 11:49:00,
2013-09-04 07:50:00,55.4,51.0,30.08,NE,40,0.0,0.0,85,0.00,,,0.00,142,WeatherCatV1.20B785,2013-09-04 11:50:00,
2013-09-04 07:51:00,55.6,51.2,30.08,NE,40,0.0,0.0,85,0.00,,,0.00,148,WeatherCatV1.20B785,2013-09-04 11:51:00,
2013-09-04 07:53:00,55.9,51.8,30.08,NE,40,0.0,0.0,86,0.00,,,0.00,151,WeatherCatV1.20B785,2013-09-04 11:53:00,
2013-09-04 07:54:00,56.1,52.0,30.08,NE,40,0.0,0.0,86,0.00,,,0.00,156,WeatherCatV1.20B785,2013-09-04 11:54:00,
2013-09-04 07:55:00,56.2,51.8,30.08,NE,40,0.0,0.0,85,0.00,,,0.00,160,WeatherCatV1.20B785,2013-09-04 11:55:00,
2013-09-04 07:56:00,56.2,51.8,30.08,NE,40,0.0,0.0,85,0.00,,,0.00,162,WeatherCatV1.20B785,2013-09-04 11:56:00,
2013-09-04 07:58:00,56.5,52.4,30.08,NE,40,1.0,1.0,86,0.00,,,0.00,171,WeatherCatV1.20B785,2013-09-04 11:58:00,
2013-09-04 08:00:00,56.9,52.8,30.08,NE,40,1.0,1.0,86,0.00,,,0.00,176,WeatherCatV1.20B785,2013-09-04 12:00:00,
2013-09-04 08:01:00,56.9,52.8,30.09,NE,40,1.0,1.0,86,0.00,,,0.00,179,WeatherCatV1.20B785,2013-09-04 12:01:00,
2013-09-04 08:02:00,57.1,53.0,30.09,NE,40,0.0,2.0,86,0.00,,,0.00,181,WeatherCatV1.20B785,2013-09-04 12:02:00,
2013-09-04 08:04:00,57.4,53.6,30.09,ENE,69,1.0,2.0,87,0.00,,,0.00,186,WeatherCatV1.20B785,2013-09-04 12:04:00,
2013-09-04 08:06:00,57.6,53.8,30.09,ENE,71,0.0,2.0,87,0.00,,,0.00,193,WeatherCatV1.20B785,2013-09-04 12:06:00,
2013-09-04 08:07:00,57.7,54.2,30.09,ENE,71,0.0,1.0,88,0.00,,,0.00,199,WeatherCatV1.20B785,2013-09-04 12:07:00,
2013-09-04 08:08:00,57.8,54.3,30.09,ENE,71,0.0,0.0,88,0.00,,,0.00,200,WeatherCatV1.20B785,2013-09-04 12:08:00,
2013-09-04 08:09:00,57.9,54.4,30.09,ENE,71,0.0,0.0,88,0.00,,,0.00,204,WeatherCatV1.20B785,2013-09-04 12:09:00,
2013-09-04 08:11:00,58.1,54.9,30.09,ENE,71,0.0,0.0,89,0.00,,,0.00,211,WeatherCatV1.20B785,2013-09-04 12:11:00,
2013-09-04 08:12:00,58.1,54.9,30.09,ENE,71,0.0,0.0,89,0.00,,,0.00,211,WeatherCatV1.20B785,2013-09-04 12:12:00,
2013-09-04 08:14:00,58.4,54.9,30.09,ENE,71,0.0,1.0,88,0.00,,,0.00,218,WeatherCatV1.20B785,2013-09-04 12:14:00,
2013-09-04 08:15:00,58.5,55.3,30.09,ENE,71,0.0,1.0,89,0.00,,,0.00,220,WeatherCatV1.20B785,2013-09-04 12:15:00,
2013-09-04 08:17:00,58.7,55.2,30.09,ENE,71,0.0,0.0,88,0.00,,,0.00,225,WeatherCatV1.20B785,2013-09-04 12:17:00,
2013-09-04 08:18:00,58.9,55.7,30.09,ENE,71,0.0,0.0,89,0.00,,,0.00,234,WeatherCatV1.20B785,2013-09-04 12:18:00,
2013-09-04 08:20:00,59.2,56.0,30.08,ENE,71,0.0,0.0,89,0.00,,,0.00,239,WeatherCatV1.20B785,2013-09-04 12:20:00,
2013-09-04 08:21:00,59.3,56.0,30.08,ENE,71,0.0,0.0,89,0.00,,,0.00,239,WeatherCatV1.20B785,2013-09-04 12:21:00,
2013-09-04 08:22:00,59.4,55.8,30.08,ENE,71,0.0,0.0,88,0.00,,,0.00,241,WeatherCatV1.20B785,2013-09-04 12:22:00,
2013-09-04 08:24:00,59.6,56.3,30.08,East,81,0.0,1.0,89,0.00,,,0.00,246,WeatherCatV1.20B785,2013-09-04 12:24:00,
2013-09-04 08:26:00,59.9,56.3,30.09,East,81,0.0,0.0,88,0.00,,,0.00,255,WeatherCatV1.20B785,2013-09-04 12:26:00,
2013-09-04 08:27:00,60.0,56.4,30.09,East,81,0.0,1.0,88,0.00,,,0.00,257,WeatherCatV1.20B785,2013-09-04 12:27:00,
2013-09-04 08:28:00,60.1,56.5,30.09,East,81,0.0,1.0,88,0.00,,,0.00,260,WeatherCatV1.20B785,2013-09-04 12:28:00,
2013-09-04 08:31:00,60.4,56.8,30.09,SSE,154,0.0,1.0,88,0.00,,,0.00,272,WeatherCatV1.20B785,2013-09-04 12:31:00,
2013-09-04 08:32:00,60.4,56.8,30.09,SSE,154,0.0,0.0,88,0.00,,,0.00,278,WeatherCatV1.20B785,2013-09-04 12:32:00,
2013-09-04 08:33:00,60.5,56.9,30.09,SSE,154,0.0,1.0,88,0.00,,,0.00,281,WeatherCatV1.20B785,2013-09-04 12:33:00,
2013-09-04 08:36:00,60.8,57.2,30.09,South,177,0.0,1.0,88,0.00,,,0.00,288,WeatherCatV1.20B785,2013-09-04 12:36:00,
2013-09-04 08:37:00,60.9,57.3,30.09,South,177,0.0,0.0,88,0.00,,,0.00,292,WeatherCatV1.20B785,2013-09-04 12:37:00,
2013-09-04 08:38:00,61.0,57.4,30.09,South,177,1.0,1.0,88,0.00,,,0.00,294,WeatherCatV1.20B785,2013-09-04 12:38:00,
2013-09-04 08:39:00,61.1,57.5,30.09,South,177,0.0,1.0,88,0.00,,,0.00,297,WeatherCatV1.20B785,2013-09-04 12:39:00,
2013-09-04 08:42:00,61.6,58.0,30.09,South,177,0.0,0.0,88,0.00,,,0.00,309,WeatherCatV1.20B785,2013-09-04 12:42:00,
2013-09-04 08:43:00,61.9,58.0,30.09,South,175,0.0,0.0,87,0.00,,,0.00,316,WeatherCatV1.20B785,2013-09-04 12:43:00,
2013-09-04 08:44:00,62.0,58.1,30.09,South,175,0.0,1.0,87,0.00,,,0.00,316,WeatherCatV1.20B785,2013-09-04 12:44:00,
2013-09-04 08:47:00,62.6,58.7,30.09,South,173,0.0,1.0,87,0.00,,,0.00,332,WeatherCatV1.20B785,2013-09-04 12:47:00,
2013-09-04 08:48:00,62.9,58.6,30.09,East,97,0.0,1.0,86,0.00,,,0.00,336,WeatherCatV1.20B785,2013-09-04 12:48:00,
2013-09-04 08:49:00,63.0,58.4,30.09,East,97,0.0,1.0,85,0.00,,,0.00,341,WeatherCatV1.20B785,2013-09-04 12:49:00,
2013-09-04 08:52:00,63.5,58.6,30.09,East,97,1.0,1.0,84,0.00,,,0.00,355,WeatherCatV1.20B785,2013-09-04 12:52:00,
2013-09-04 08:53:00,63.6,58.3,30.09,SSE,164,0.0,1.0,83,0.00,,,0.00,359,WeatherCatV1.20B785,2013-09-04 12:53:00,
2013-09-04 08:54:00,63.7,58.8,30.09,NE,54,0.0,1.0,84,0.00,,,0.00,364,WeatherCatV1.20B785,2013-09-04 12:54:00,
2013-09-04 08:55:00,63.8,59.2,30.09,ENE,58,0.0,1.0,85,0.00,,,0.00,367,WeatherCatV1.20B785,2013-09-04 12:55:00,
2013-09-04 08:57:00,64.1,58.8,30.09,ESE,104,1.0,2.0,83,0.00,,,0.00,380,WeatherCatV1.20B785,2013-09-04 12:57:00,
2013-09-04 08:58:00,64.2,58.9,30.09,SE,127,0.0,4.0,83,0.00,,,0.00,380,WeatherCatV1.20B785,2013-09-04 12:58:00,
2013-09-04 08:59:00,64.4,59.8,30.09,SE,132,0.0,0.0,85,0.00,,,0.00,388,WeatherCatV1.20B785,2013-09-04 12:59:00,
2013-09-04 09:00:00,64.5,59.9,30.09,SE,132,0.0,0.0,85,0.00,,,0.00,388,WeatherCatV1.20B785,2013-09-04 13:00:00,
2013-09-04 09:03:00,64.9,58.9,30.09,SSW,202,0.0,1.0,81,0.00,,,0.00,401,WeatherCatV1.20B785,2013-09-04 13:03:00,
2013-09-04 09:06:00,65.2,59.2,30.09,West,265,1.0,1.0,81,0.00,,,0.00,420,WeatherCatV1.20B785,2013-09-04 13:06:00,
2013-09-04 09:07:00,65.3,59.3,30.09,WNW,283,1.0,2.0,81,0.00,,,0.00,422,WeatherCatV1.20B785,2013-09-04 13:07:00,
2013-09-04 09:08:00,65.5,59.5,30.09,WNW,283,0.0,2.0,81,0.00,,,0.00,429,WeatherCatV1.20B785,2013-09-04 13:08:00,
2013-09-04 09:09:00,65.5,59.5,30.09,WNW,292,0.0,2.0,81,0.00,,,0.00,429,WeatherCatV1.20B785,2013-09-04 13:09:00,
2013-09-04 09:11:00,65.8,59.1,30.09,WSW,250,0.0,1.0,79,0.00,,,0.00,441,WeatherCatV1.20B785,2013-09-04 13:11:00,
2013-09-04 09:12:00,65.9,59.5,30.09,ESE,123,0.0,3.0,80,0.00,,,0.00,441,WeatherCatV1.20B785,2013-09-04 13:12:00,
2013-09-04 09:13:00,66.0,59.7,30.09,SE,138,0.0,3.0,80,0.00,,,0.00,445,WeatherCatV1.20B785,2013-09-04 13:13:00,
2013-09-04 09:14:00,66.1,59.7,30.09,East,92,0.0,3.0,80,0.00,,,0.00,448,WeatherCatV1.20B785,2013-09-04 13:14:00,
2013-09-04 09:17:00,66.3,58.5,30.09,WSW,248,2.0,3.0,76,0.00,,,0.00,461,WeatherCatV1.20B785,2013-09-04 13:17:00,
2013-09-04 09:18:00,66.3,58.5,30.09,WNW,293,0.0,3.0,76,0.00,,,0.00,464,WeatherCatV1.20B785,2013-09-04 13:18:00,
2013-09-04 09:19:00,66.3,58.5,30.09,SW,233,0.0,2.0,76,0.00,,,0.00,464,WeatherCatV1.20B785,2013-09-04 13:19:00,
2013-09-04 09:20:00,66.3,58.5,30.09,West,264,0.0,3.0,76,0.00,,,0.00,468,WeatherCatV1.20B785,2013-09-04 13:20:00,
2013-09-04 09:23:00,66.3,58.5,30.09,West,261,0.0,2.0,76,0.00,,,0.00,478,WeatherCatV1.20B785,2013-09-04 13:23:00,
2013-09-04 09:24:00,66.3,58.9,30.09,West,270,1.0,2.0,77,0.00,,,0.00,482,WeatherCatV1.20B785,2013-09-04 13:24:00,
2013-09-04 09:25:00,66.4,58.6,30.09,WSW,252,0.0,2.0,76,0.00,,,0.00,485,WeatherCatV1.20B785,2013-09-04 13:25:00,
2013-09-04 09:26:00,66.5,58.7,30.09,WSW,252,0.0,1.0,76,0.00,,,0.00,487,WeatherCatV1.20B785,2013-09-04 13:26:00,
2013-09-04 09:28:00,66.8,58.6,30.10,NW,311,1.0,4.0,75,0.00,,,0.00,492,WeatherCatV1.20B785,2013-09-04 13:28:00,
2013-09-04 09:29:00,66.8,58.6,30.10,NW,309,0.0,4.0,75,0.00,,,0.00,492,WeatherCatV1.20B785,2013-09-04 13:29:00,
2013-09-04 09:30:00,66.9,58.7,30.10,NW,309,1.0,4.0,75,0.00,,,0.00,496,WeatherCatV1.20B785,2013-09-04 13:30:00,
2013-09-04 09:33:00,67.2,59.0,30.10,West,281,1.0,1.0,75,0.00,,,0.00,510,WeatherCatV1.20B785,2013-09-04 13:33:00,
2013-09-04 09:34:00,67.3,59.1,30.10,West,281,0.0,1.0,75,0.00,,,0.00,513,WeatherCatV1.20B785,2013-09-04 13:34:00,
2013-09-04 09:35:00,67.3,59.1,30.10,West,281,1.0,1.0,75,0.00,,,0.00,513,WeatherCatV1.20B785,2013-09-04 13:35:00,
2013-09-04 09:38:00,67.7,58.0,30.09,NW,324,0.0,2.0,71,0.00,,,0.00,529,WeatherCatV1.20B785,2013-09-04 13:38:00,
2013-09-04 09:39:00,67.8,58.0,30.09,NW,324,0.0,1.0,71,0.00,,,0.00,533,WeatherCatV1.20B785,2013-09-04 13:39:00,
2013-09-04 09:40:00,67.9,57.7,30.09,NW,308,1.0,2.0,70,0.00,,,0.00,534,WeatherCatV1.20B785,2013-09-04 13:40:00,
2013-09-04 09:41:00,68.0,57.8,30.09,WNW,288,3.0,3.0,70,0.00,,,0.00,536,WeatherCatV1.20B785,2013-09-04 13:41:00,
2013-09-04 09:44:00,68.3,58.5,30.09,NW,313,1.0,2.0,71,0.00,,,0.00,547,WeatherCatV1.20B785,2013-09-04 13:44:00,
2013-09-04 09:45:00,68.4,58.6,30.09,NW,313,0.0,1.0,71,0.00,,,0.00,548,WeatherCatV1.20B785,2013-09-04 13:45:00,
2013-09-04 09:46:00,68.5,58.7,30.09,NW,311,0.0,2.0,71,0.00,,,0.00,552,WeatherCatV1.20B785,2013-09-04 13:46:00,
2013-09-04 09:49:00,68.9,59.9,30.09,WNW,302,0.0,1.0,73,0.00,,,0.00,563,WeatherCatV1.20B785,2013-09-04 13:49:00,
2013-09-04 09:50:00,69.0,59.2,30.09,WNW,302,1.0,1.0,71,0.00,,,0.00,564,WeatherCatV1.20B785,2013-09-04 13:50:00,
2013-09-04 09:51:00,69.1,59.3,30.09,WNW,302,1.0,2.0,71,0.00,,,0.00,566,WeatherCatV1.20B785,2013-09-04 13:51:00,
2013-09-04 09:53:00,69.2,59.4,30.09,West,271,1.0,3.0,71,0.00,,,0.00,573,WeatherCatV1.20B785,2013-09-04 13:53:00,
2013-09-04 09:54:00,69.4,59.2,30.09,WSW,257,2.0,2.0,70,0.00,,,0.00,577,WeatherCatV1.20B785,2013-09-04 13:54:00,
2013-09-04 09:55:00,69.4,58.8,30.09,West,280,2.0,2.0,69,0.00,,,0.00,577,WeatherCatV1.20B785,2013-09-04 13:55:00,
2013-09-04 09:57:00,69.4,60.0,30.09,WNW,301,2.0,3.0,72,0.00,,,0.00,582,WeatherCatV1.20B785,2013-09-04 13:57:00,
2013-09-04 09:58:00,69.5,59.3,30.09,WNW,301,0.0,0.0,70,0.00,,,0.00,584,WeatherCatV1.20B785,2013-09-04 13:58:00,
2013-09-04 10:00:00,69.6,58.6,30.10,WNW,283,2.0,3.0,68,0.00,,,0.00,589,WeatherCatV1.20B785,2013-09-04 14:00:00,
2013-09-04 10:01:00,69.6,59.0,30.10,NW,306,1.0,3.0,69,0.00,,,0.00,591,WeatherCatV1.20B785,2013-09-04 14:01:00,
2013-09-04 10:02:00,69.7,58.7,30.10,WSW,254,1.0,1.0,68,0.00,,,0.00,596,WeatherCatV1.20B785,2013-09-04 14:02:00,
2013-09-04 10:03:00,69.7,58.7,30.10,NW,304,2.0,2.0,68,0.00,,,0.00,599,WeatherCatV1.20B785,2013-09-04 14:03:00,
2013-09-04 10:04:00,69.7,58.7,30.10,NW,304,0.0,2.0,68,0.00,,,0.00,603,WeatherCatV1.20B785,2013-09-04 14:04:00,
2013-09-04 10:05:00,69.7,58.2,30.10,NW,304,1.0,4.0,67,0.00,,,0.00,605,WeatherCatV1.20B785,2013-09-04 14:05:00,
2013-09-04 10:06:00,69.8,57.9,30.10,WNW,291,1.0,4.0,66,0.00,,,0.00,612,WeatherCatV1.20B785,2013-09-04 14:06:00,
2013-09-04 10:07:00,69.8,58.3,30.10,WSW,257,2.0,2.0,67,0.00,,,0.00,613,WeatherCatV1.20B785,2013-09-04 14:07:00,
2013-09-04 10:08:00,69.9,58.8,30.10,West,278,1.0,2.0,68,0.00,,,0.00,615,WeatherCatV1.20B785,2013-09-04 14:08:00,
2013-09-04 10:09:00,70.0,58.9,30.10,West,278,1.0,1.0,68,0.00,,,0.00,617,WeatherCatV1.20B785,2013-09-04 14:09:00,
2013-09-04 10:10:00,70.1,59.4,30.10,WNW,297,2.0,2.0,69,0.00,,,0.00,619,WeatherCatV1.20B785,2013-09-04 14:10:00,
2013-09-04 10:11:00,70.2,59.1,30.10,NW,312,3.0,4.0,68,0.00,,,0.00,624,WeatherCatV1.20B785,2013-09-04 14:11:00,
2013-09-04 10:12:00,70.2,58.3,30.10,NW,312,1.0,4.0,66,0.00,,,0.00,624,WeatherCatV1.20B785,2013-09-04 14:12:00,
2013-09-04 10:13:00,70.3,58.4,30.10,NW,310,2.0,4.0,66,0.00,,,0.00,626,WeatherCatV1.20B785,2013-09-04 14:13:00,
2013-09-04 10:14:00,70.3,58.0,30.10,WNW,288,1.0,3.0,65,0.00,,,0.00,628,WeatherCatV1.20B785,2013-09-04 14:14:00,
2013-09-04 10:15:00,70.4,58.1,30.10,NW,315,3.0,3.0,65,0.00,,,0.00,631,WeatherCatV1.20B785,2013-09-04 14:15:00,
2013-09-04 10:17:00,70.6,59.1,30.10,NW,310,2.0,4.0,67,0.00,,,0.00,635,WeatherCatV1.20B785,2013-09-04 14:17:00,
2013-09-04 10:18:00,70.6,58.7,30.10,NNE,33,2.0,4.0,66,0.00,,,0.00,638,WeatherCatV1.20B785,2013-09-04 14:18:00,
2013-09-04 10:19:00,70.7,59.2,30.10,ENE,69,1.0,2.0,67,0.00,,,0.00,645,WeatherCatV1.20B785,2013-09-04 14:19:00,
2013-09-04 10:20:00,70.8,59.3,30.10,NW,310,3.0,3.0,67,0.00,,,0.00,649,WeatherCatV1.20B785,2013-09-04 14:20:00,
2013-09-04 10:22:00,70.9,59.0,30.10,NW,304,1.0,3.0,66,0.00,,,0.00,652,WeatherCatV1.20B785,2013-09-04 14:22:00,
2013-09-04 10:23:00,70.9,59.0,30.10,WNW,294,2.0,3.0,66,0.00,,,0.00,656,WeatherCatV1.20B785,2013-09-04 14:23:00,
2013-09-04 10:25:00,71.0,59.9,30.10,NW,308,3.0,3.0,68,0.00,,,0.00,663,WeatherCatV1.20B785,2013-09-04 14:25:00,
2013-09-04 10:27:00,71.1,59.6,30.10,NW,312,3.0,4.0,67,0.00,,,0.00,666,WeatherCatV1.20B785,2013-09-04 14:27:00,
2013-09-04 10:28:00,71.2,59.2,30.10,WSW,256,2.0,4.0,66,0.00,,,0.00,668,WeatherCatV1.20B785,2013-09-04 14:28:00,
2013-09-04 10:29:00,71.3,58.5,30.10,South,186,0.0,4.0,64,0.00,,,0.00,670,WeatherCatV1.20B785,2013-09-04 14:29:00,
2013-09-04 10:30:00,71.3,58.9,30.10,West,265,0.0,3.0,65,0.00,,,0.00,670,WeatherCatV1.20B785,2013-09-04 14:30:00,
2013-09-04 10:32:00,71.5,59.1,30.10,WNW,287,2.0,4.0,65,0.00,,,0.00,677,WeatherCatV1.20B785,2013-09-04 14:32:00,
2013-09-04 10:33:00,71.5,60.0,30.10,West,279,3.0,5.0,67,0.00,,,0.00,679,WeatherCatV1.20B785,2013-09-04 14:33:00,
2013-09-04 10:34:00,71.6,59.2,30.10,NW,308,2.0,5.0,65,0.00,,,0.00,682,WeatherCatV1.20B785,2013-09-04 14:34:00,
2013-09-04 10:35:00,71.7,59.3,30.10,WNW,296,5.0,5.0,65,0.00,,,0.00,682,WeatherCatV1.20B785,2013-09-04 14:35:00,
2013-09-04 10:36:00,71.7,58.9,30.10,WNW,302,4.0,6.0,64,0.00,,,0.00,686,WeatherCatV1.20B785,2013-09-04 14:36:00,
2013-09-04 10:38:00,71.9,59.5,30.10,WNW,285,1.0,6.0,65,0.00,,,0.00,694,WeatherCatV1.20B785,2013-09-04 14:38:00,
2013-09-04 10:41:00,72.0,59.6,30.10,NW,323,1.0,2.0,65,0.00,,,0.00,700,WeatherCatV1.20B785,2013-09-04 14:41:00,
2013-09-04 10:43:00,72.1,60.1,30.09,NE,50,3.0,3.0,66,0.00,,,0.00,707,WeatherCatV1.20B785,2013-09-04 14:43:00,
2013-09-04 10:44:00,72.2,59.3,30.10,NE,48,0.0,3.0,64,0.00,,,0.00,707,WeatherCatV1.20B785,2013-09-04 14:44:00,
2013-09-04 10:45:00,72.3,58.1,30.10,NE,50,2.0,4.0,61,0.00,,,0.00,708,WeatherCatV1.20B785,2013-09-04 14:45:00,
2013-09-04 10:46:00,72.3,58.1,30.09,North,354,1.0,4.0,61,0.00,,,0.00,712,WeatherCatV1.20B785,2013-09-04 14:46:00,
2013-09-04 10:48:00,72.4,58.6,30.10,WNW,296,3.0,3.0,62,0.00,,,0.00,717,WeatherCatV1.20B785,2013-09-04 14:48:00,
2013-09-04 10:49:00,72.4,59.5,30.10,NW,312,1.0,3.0,64,0.00,,,0.00,717,WeatherCatV1.20B785,2013-09-04 14:49:00,
2013-09-04 10:51:00,72.5,57.8,30.10,West,277,5.0,5.0,60,0.00,,,0.00,724,WeatherCatV1.20B785,2013-09-04 14:51:00,
2013-09-04 10:53:00,72.6,58.8,30.09,NW,309,3.0,3.0,62,0.00,,,0.00,726,WeatherCatV1.20B785,2013-09-04 14:53:00,
2013-09-04 10:54:00,72.6,58.8,30.09,WSW,246,1.0,4.0,62,0.00,,,0.00,729,WeatherCatV1.20B785,2013-09-04 14:54:00,
2013-09-04 10:57:00,72.6,57.9,30.09,WNW,289,3.0,3.0,60,0.00,,,0.00,737,WeatherCatV1.20B785,2013-09-04 14:57:00,
2013-09-04 10:58:00,72.7,58.9,30.09,WNW,286,3.0,4.0,62,0.00,,,0.00,740,WeatherCatV1.20B785,2013-09-04 14:58:00,
2013-09-04 10:59:00,72.8,59.0,30.09,West,277,2.0,4.0,62,0.00,,,0.00,740,WeatherCatV1.20B785,2013-09-04 14:59:00,
2013-09-04 11:02:00,72.9,58.7,30.09,WNW,293,3.0,4.0,61,0.00,,,0.00,745,WeatherCatV1.20B785,2013-09-04 15:02:00,
2013-09-04 11:03:00,73.0,58.3,30.09,WNW,293,0.0,4.0,60,0.00,,,0.00,751,WeatherCatV1.20B785,2013-09-04 15:03:00,
2013-09-04 11:04:00,73.0,58.3,30.09,WNW,298,3.0,4.0,60,0.00,,,0.00,751,WeatherCatV1.20B785,2013-09-04 15:04:00,
2013-09-04 11:05:00,73.1,58.8,30.09,West,277,2.0,4.0,61,0.00,,,0.00,751,WeatherCatV1.20B785,2013-09-04 15:05:00,
2013-09-04 11:07:00,73.3,58.1,30.09,West,278,0.0,2.0,59,0.00,,,0.00,759,WeatherCatV1.20B785,2013-09-04 15:07:00,
2013-09-04 11:09:00,73.3,58.6,30.09,WNW,291,3.0,6.0,60,0.00,,,0.00,761,WeatherCatV1.20B785,2013-09-04 15:09:00,
2013-09-04 11:10:00,73.4,58.2,30.09,NW,323,0.0,6.0,59,0.00,,,0.00,763,WeatherCatV1.20B785,2013-09-04 15:10:00,
2013-09-04 11:11:00,73.4,58.2,30.09,WSW,250,1.0,4.0,59,0.00,,,0.00,766,WeatherCatV1.20B785,2013-09-04 15:11:00,
2013-09-04 11:12:00,73.4,57.7,30.09,WNW,300,1.0,4.0,58,0.00,,,0.00,768,WeatherCatV1.20B785,2013-09-04 15:12:00,
2013-09-04 11:14:00,73.5,59.2,30.09,WNW,299,1.0,2.0,61,0.00,,,0.00,772,WeatherCatV1.20B785,2013-09-04 15:14:00,
2013-09-04 11:15:00,73.5,59.2,30.09,West,266,1.0,3.0,61,0.00,,,0.00,772,WeatherCatV1.20B785,2013-09-04 15:15:00,
2013-09-04 11:16:00,73.6,59.3,30.09,WSW,258,1.0,3.0,61,0.00,,,0.00,773,WeatherCatV1.20B785,2013-09-04 15:16:00,
2013-09-04 11:17:00,73.7,59.4,30.09,WNW,286,4.0,4.0,61,0.00,,,0.00,766,WeatherCatV1.20B785,2013-09-04 15:17:00,
2013-09-04 11:19:00,73.9,60.0,30.09,West,273,2.0,3.0,62,0.00,,,0.00,766,WeatherCatV1.20B785,2013-09-04 15:19:00,
2013-09-04 11:20:00,74.0,60.1,30.09,WNW,291,3.0,6.0,62,0.00,,,0.00,782,WeatherCatV1.20B785,2013-09-04 15:20:00,
2013-09-04 11:21:00,74.1,59.8,30.09,WNW,296,2.0,6.0,61,0.00,,,0.00,784,WeatherCatV1.20B785,2013-09-04 15:21:00,
2013-09-04 11:22:00,74.3,59.5,30.09,NW,308,1.0,3.0,60,0.00,,,0.00,786,WeatherCatV1.20B785,2013-09-04 15:22:00,
2013-09-04 11:24:00,74.5,58.2,30.09,North,358,0.0,2.0,57,0.00,,,0.00,788,WeatherCatV1.20B785,2013-09-04 15:24:00,
2013-09-04 11:25:00,74.5,57.8,30.09,WNW,290,2.0,3.0,56,0.00,,,0.00,788,WeatherCatV1.20B785,2013-09-04 15:25:00,
2013-09-04 11:27:00,74.6,57.8,30.09,NW,310,0.0,3.0,56,0.00,,,0.00,791,WeatherCatV1.20B785,2013-09-04 15:27:00,
2013-09-04 11:30:00,74.7,57.4,30.09,WNW,283,1.0,5.0,55,0.00,,,0.00,798,WeatherCatV1.20B785,2013-09-04 15:30:00,
2013-09-04 11:31:00,74.7,58.4,30.09,WNW,283,1.0,1.0,57,0.00,,,0.00,802,WeatherCatV1.20B785,2013-09-04 15:31:00,
2013-09-04 11:32:00,74.6,58.3,30.09,WNW,301,1.0,3.0,57,0.00,,,0.00,803,WeatherCatV1.20B785,2013-09-04 15:32:00,
2013-09-04 11:35:00,74.5,56.8,30.09,WNW,303,3.0,6.0,54,0.00,,,0.00,809,WeatherCatV1.20B785,2013-09-04 15:35:00,
2013-09-04 11:36:00,74.5,57.8,30.08,WNW,285,4.0,5.0,56,0.00,,,0.00,810,WeatherCatV1.20B785,2013-09-04 15:36:00,
2013-09-04 11:37:00,74.5,57.8,30.08,NW,308,2.0,5.0,56,0.00,,,0.00,812,WeatherCatV1.20B785,2013-09-04 15:37:00,
2013-09-04 11:41:00,74.8,58.0,30.08,WNW,295,6.0,6.0,56,0.00,,,0.00,819,WeatherCatV1.20B785,2013-09-04 15:41:00,
2013-09-04 11:42:00,74.9,57.6,30.08,WNW,293,3.0,6.0,55,0.00,,,0.00,817,WeatherCatV1.20B785,2013-09-04 15:42:00,
2013-09-04 11:43:00,75.0,59.2,30.08,WNW,290,3.0,5.0,58,0.00,,,0.00,779,WeatherCatV1.20B785,2013-09-04 15:43:00,
2013-09-04 11:46:00,75.4,57.1,30.08,WNW,289,2.0,7.0,53,0.00,,,0.00,742,WeatherCatV1.20B785,2013-09-04 15:46:00,
2013-09-04 11:47:00,75.5,57.2,30.08,WNW,301,1.0,2.0,53,0.00,,,0.00,742,WeatherCatV1.20B785,2013-09-04 15:47:00,
2013-09-04 11:48:00,75.5,56.1,30.08,SW,228,0.0,2.0,51,0.00,,,0.00,742,WeatherCatV1.20B785,2013-09-04 15:48:00,
2013-09-04 11:51:00,75.5,57.2,30.08,WNW,296,0.0,0.0,53,0.00,,,0.00,831,WeatherCatV1.20B785,2013-09-04 15:51:00,
2013-09-04 11:53:00,75.6,58.8,30.08,NE,35,0.0,3.0,56,0.00,,,0.00,835,WeatherCatV1.20B785,2013-09-04 15:53:00,
2013-09-04 11:56:00,75.9,56.5,30.08,ESE,115,2.0,5.0,51,0.00,,,0.00,842,WeatherCatV1.20B785,2013-09-04 15:56:00,
2013-09-04 11:58:00,75.8,56.9,30.08,South,181,0.0,0.0,52,0.00,,,0.00,851,WeatherCatV1.20B785,2013-09-04 15:58:00,
2013-09-04 11:59:00,75.8,56.9,30.08,South,181,0.0,1.0,52,0.00,,,0.00,851,WeatherCatV1.20B785,2013-09-04 15:59:00,
2013-09-04 12:01:00,75.9,57.0,30.07,ESE,121,0.0,3.0,52,0.00,,,0.00,849,WeatherCatV1.20B785,2013-09-04 16:01:00,
2013-09-04 12:04:00,76.2,58.8,30.08,NW,316,2.0,6.0,55,0.00,,,0.00,849,WeatherCatV1.20B785,2013-09-04 16:04:00,
2013-09-04 12:06:00,76.6,57.6,30.07,ESE,103,0.0,2.0,52,0.00,,,0.00,854,WeatherCatV1.20B785,2013-09-04 16:06:00,
2013-09-04 12:08:00,76.7,57.2,30.07,NNE,27,1.0,3.0,51,0.00,,,0.00,853,WeatherCatV1.20B785,2013-09-04 16:08:00,
2013-09-04 12:09:00,76.8,57.8,30.07,East,90,4.0,4.0,52,0.00,,,0.00,856,WeatherCatV1.20B785,2013-09-04 16:09:00,
2013-09-04 12:10:00,76.8,56.7,30.07,ESE,103,3.0,5.0,50,0.00,,,0.00,858,WeatherCatV1.20B785,2013-09-04 16:10:00,
2013-09-04 12:11:00,76.7,56.6,30.07,East,96,0.0,1.0,50,0.00,,,0.00,858,WeatherCatV1.20B785,2013-09-04 16:11:00,
2013-09-04 12:13:00,76.8,58.3,30.07,SSE,163,0.0,1.0,53,0.00,,,0.00,861,WeatherCatV1.20B785,2013-09-04 16:13:00,
2013-09-04 12:14:00,76.9,59.0,30.07,NW,311,2.0,3.0,54,0.00,,,0.00,861,WeatherCatV1.20B785,2013-09-04 16:14:00,
2013-09-04 12:15:00,77.0,58.0,30.07,NW,325,0.0,3.0,52,0.00,,,0.00,863,WeatherCatV1.20B785,2013-09-04 16:15:00,
2013-09-04 12:17:00,77.2,55.4,30.07,WNW,293,0.0,3.0,47,0.00,,,0.00,865,WeatherCatV1.20B785,2013-09-04 16:17:00,
2013-09-04 12:19:00,77.3,57.2,30.07,NNW,333,0.0,2.0,50,0.00,,,0.00,867,WeatherCatV1.20B785,2013-09-04 16:19:00,
2013-09-04 12:20:00,77.4,56.2,30.07,NNW,327,0.0,2.0,48,0.00,,,0.00,867,WeatherCatV1.20B785,2013-09-04 16:20:00,
2013-09-04 12:22:00,77.6,58.0,30.07,NW,306,1.0,3.0,51,0.00,,,0.00,870,WeatherCatV1.20B785,2013-09-04 16:22:00,
2013-09-04 12:24:00,77.8,55.3,30.07,West,264,1.0,3.0,46,0.00,,,0.00,872,WeatherCatV1.20B785,2013-09-04 16:24:00,
2013-09-04 12:25:00,77.8,55.9,30.07,WNW,302,2.0,3.0,47,0.00,,,0.00,872,WeatherCatV1.20B785,2013-09-04 16:25:00,
2013-09-04 12:26:00,77.9,55.4,30.07,WNW,299,1.0,3.0,46,0.00,,,0.00,875,WeatherCatV1.20B785,2013-09-04 16:26:00,
2013-09-04 12:28:00,78.0,57.8,30.07,NW,321,0.0,2.0,50,0.00,,,0.00,875,WeatherCatV1.20B785,2013-09-04 16:28:00,
2013-09-04 12:29:00,78.1,57.4,30.07,WNW,289,3.0,3.0,49,0.00,,,0.00,877,WeatherCatV1.20B785,2013-09-04 16:29:00,
2013-09-04 12:30:00,78.1,57.9,30.07,WNW,287,3.0,3.0,50,0.00,,,0.00,877,WeatherCatV1.20B785,2013-09-04 16:30:00,
2013-09-04 12:31:00,78.2,58.0,30.07,WNW,293,2.0,4.0,50,0.00,,,0.00,875,WeatherCatV1.20B785,2013-09-04 16:31:00,
2013-09-04 12:33:00,78.4,56.5,30.07,West,281,1.0,3.0,47,0.00,,,0.00,877,WeatherCatV1.20B785,2013-09-04 16:33:00,
2013-09-04 12:34:00,78.4,56.5,30.07,SW,221,1.0,1.0,47,0.00,,,0.00,881,WeatherCatV1.20B785,2013-09-04 16:34:00,
2013-09-04 12:35:00,78.4,57.6,30.07,West,262,1.0,3.0,49,0.00,,,0.00,877,WeatherCatV1.20B785,2013-09-04 16:35:00,
2013-09-04 12:37:00,78.4,58.8,30.07,WNW,285,2.0,4.0,51,0.00,,,0.00,879,WeatherCatV1.20B785,2013-09-04 16:37:00,
2013-09-04 12:38:00,78.4,57.1,30.07,WNW,284,4.0,5.0,48,0.00,,,0.00,879,WeatherCatV1.20B785,2013-09-04 16:38:00,
2013-09-04 12:39:00,78.5,57.7,30.07,West,281,2.0,5.0,49,0.00,,,0.00,879,WeatherCatV1.20B785,2013-09-04 16:39:00,
2013-09-04 12:40:00,78.4,58.2,30.07,NW,308,4.0,4.0,50,0.00,,,0.00,879,WeatherCatV1.20B785,2013-09-04 16:40:00,
2013-09-04 12:42:00,78.4,57.1,30.07,NW,305,1.0,3.0,48,0.00,,,0.00,888,WeatherCatV1.20B785,2013-09-04 16:42:00,
2013-09-04 12:43:00,78.5,56.6,30.07,NW,306,1.0,2.0,47,0.00,,,0.00,884,WeatherCatV1.20B785,2013-09-04 16:43:00,
2013-09-04 12:45:00,78.5,56.0,30.07,WSW,254,0.0,2.0,46,0.00,,,0.00,888,WeatherCatV1.20B785,2013-09-04 16:45:00,
2013-09-04 12:46:00,78.5,57.2,30.07,WSW,254,0.0,1.0,48,0.00,,,0.00,886,WeatherCatV1.20B785,2013-09-04 16:46:00,
2013-09-04 12:47:00,78.5,57.2,30.06,ENE,63,2.0,3.0,48,0.00,,,0.00,891,WeatherCatV1.20B785,2013-09-04 16:47:00,
2013-09-04 12:48:00,78.5,55.4,30.06,ENE,65,0.0,3.0,45,0.00,,,0.00,889,WeatherCatV1.20B785,2013-09-04 16:48:00,
2013-09-04 12:50:00,78.5,56.0,30.07,WNW,299,3.0,4.0,46,0.00,,,0.00,891,WeatherCatV1.20B785,2013-09-04 16:50:00,
2013-09-04 12:51:00,78.5,56.6,30.07,NW,304,2.0,4.0,47,0.00,,,0.00,891,WeatherCatV1.20B785,2013-09-04 16:51:00,
2013-09-04 12:52:00,78.6,55.5,30.06,WNW,299,1.0,3.0,45,0.00,,,0.00,891,WeatherCatV1.20B785,2013-09-04 16:52:00,
2013-09-04 12:53:00,78.7,55.5,30.07,WNW,290,2.0,3.0,45,0.00,,,0.00,895,WeatherCatV1.20B785,2013-09-04 16:53:00,
2013-09-04 12:55:00,78.7,54.3,30.07,NNE,24,0.0,3.0,43,0.00,,,0.00,893,WeatherCatV1.20B785,2013-09-04 16:55:00,
2013-09-04 12:56:00,78.7,54.3,30.07,NW,306,0.0,3.0,43,0.00,,,0.00,893,WeatherCatV1.20B785,2013-09-04 16:56:00,
2013-09-04 12:58:00,78.7,56.8,30.06,NW,306,0.0,1.0,47,0.00,,,0.00,895,WeatherCatV1.20B785,2013-09-04 16:58:00,
2013-09-04 13:00:00,78.9,55.1,30.06,WNW,289,7.0,7.0,44,0.00,,,0.00,893,WeatherCatV1.20B785,2013-09-04 17:00:00,
2013-09-04 13:01:00,79.0,55.2,30.06,West,281,4.0,7.0,44,0.00,,,0.00,893,WeatherCatV1.20B785,2013-09-04 17:01:00,
2013-09-04 13:02:00,79.1,54.0,30.06,WNW,302,0.0,7.0,42,0.00,,,0.00,895,WeatherCatV1.20B785,2013-09-04 17:02:00,
2013-09-04 13:03:00,79.1,57.1,30.06,WSW,257,2.0,4.0,47,0.00,,,0.00,893,WeatherCatV1.20B785,2013-09-04 17:03:00,
2013-09-04 13:05:00,79.2,54.8,30.06,NNW,327,2.0,5.0,43,0.00,,,0.00,860,WeatherCatV1.20B785,2013-09-04 17:05:00,
2013-09-04 13:06:00,79.3,56.1,30.06,WNW,294,3.0,7.0,45,0.00,,,0.00,893,WeatherCatV1.20B785,2013-09-04 17:06:00,
2013-09-04 13:08:00,79.5,55.0,30.06,NW,308,2.0,4.0,43,0.00,,,0.00,895,WeatherCatV1.20B785,2013-09-04 17:08:00,
2013-09-04 13:09:00,79.5,54.4,30.06,NNW,329,3.0,4.0,42,0.00,,,0.00,895,WeatherCatV1.20B785,2013-09-04 17:09:00,
2013-09-04 13:11:00,79.4,54.3,30.06,NW,307,5.0,5.0,42,0.00,,,0.00,896,WeatherCatV1.20B785,2013-09-04 17:11:00,
2013-09-04 13:12:00,79.4,54.3,30.06,WNW,289,3.0,6.0,42,0.00,,,0.00,895,WeatherCatV1.20B785,2013-09-04 17:12:00,
2013-09-04 13:13:00,79.4,54.3,30.06,WNW,297,1.0,4.0,42,0.00,,,0.00,891,WeatherCatV1.20B785,2013-09-04 17:13:00,
2013-09-04 13:15:00,79.4,53.0,30.06,NW,305,3.0,5.0,40,0.00,,,0.00,893,WeatherCatV1.20B785,2013-09-04 17:15:00,
2013-09-04 13:16:00,79.4,51.5,30.06,NW,306,2.0,5.0,38,0.00,,,0.00,896,WeatherCatV1.20B785,2013-09-04 17:16:00,
2013-09-04 13:17:00,79.4,53.0,30.06,NW,305,2.0,4.0,40,0.00,,,0.00,895,WeatherCatV1.20B785,2013-09-04 17:17:00,
2013-09-04 13:18:00,79.3,52.2,30.06,NW,325,0.0,3.0,39,0.00,,,0.00,896,WeatherCatV1.20B785,2013-09-04 17:18:00,
2013-09-04 13:20:00,79.4,54.3,30.06,NW,325,1.0,1.0,42,0.00,,,0.00,896,WeatherCatV1.20B785,2013-09-04 17:20:00,
2013-09-04 13:21:00,79.4,54.9,30.06,NW,325,0.0,1.0,43,0.00,,,0.00,898,WeatherCatV1.20B785,2013-09-04 17:21:00,
2013-09-04 13:22:00,79.5,54.4,30.06,ENE,57,3.0,3.0,42,0.00,,,0.00,896,WeatherCatV1.20B785,2013-09-04 17:22:00,
2013-09-04 13:23:00,79.5,51.6,30.06,NNE,29,0.0,3.0,38,0.00,,,0.00,896,WeatherCatV1.20B785,2013-09-04 17:23:00,
2013-09-04 13:24:00,79.5,51.6,30.06,NNE,29,0.0,3.0,38,0.00,,,0.00,896,WeatherCatV1.20B785,2013-09-04 17:24:00,
2013-09-04 13:27:00,79.3,53.5,30.05,ENE,65,2.0,3.0,41,0.00,,,0.00,895,WeatherCatV1.20B785,2013-09-04 17:27:00,
2013-09-04 13:28:00,79.3,54.2,30.06,WNW,297,1.0,2.0,42,0.00,,,0.00,895,WeatherCatV1.20B785,2013-09-04 17:28:00,
2013-09-04 13:29:00,79.3,54.2,30.06,NW,304,2.0,4.0,42,0.00,,,0.00,895,WeatherCatV1.20B785,2013-09-04 17:29:00,
2013-09-04 13:30:00,79.3,52.9,30.05,WSW,256,3.0,4.0,40,0.00,,,0.00,893,WeatherCatV1.20B785,2013-09-04 17:30:00,
2013-09-04 13:32:00,79.4,54.3,30.05,NW,323,4.0,6.0,42,0.00,,,0.00,805,WeatherCatV1.20B785,2013-09-04 17:32:00,
2013-09-04 13:33:00,79.4,53.0,30.05,NW,305,1.0,4.0,40,0.00,,,0.00,889,WeatherCatV1.20B785,2013-09-04 17:33:00,
2013-09-04 13:34:00,79.4,53.0,30.05,NW,304,2.0,4.0,40,0.00,,,0.00,891,WeatherCatV1.20B785,2013-09-04 17:34:00,
2013-09-04 13:35:00,79.4,54.9,30.05,WNW,296,3.0,4.0,43,0.00,,,0.00,742,WeatherCatV1.20B785,2013-09-04 17:35:00,
2013-09-04 13:38:00,79.4,54.3,30.05,NW,310,3.0,5.0,42,0.00,,,0.00,888,WeatherCatV1.20B785,2013-09-04 17:38:00,
2013-09-04 13:39:00,79.5,55.0,30.05,NW,306,4.0,5.0,43,0.00,,,0.00,891,WeatherCatV1.20B785,2013-09-04 17:39:00,
2013-09-04 13:40:00,79.4,52.3,30.05,WNW,303,3.0,5.0,39,0.00,,,0.00,886,WeatherCatV1.20B785,2013-09-04 17:40:00,
2013-09-04 13:43:00,79.6,55.7,30.05,WNW,297,2.0,3.0,44,0.00,,,0.00,882,WeatherCatV1.20B785,2013-09-04 17:43:00,
2013-09-04 13:44:00,79.7,53.2,30.05,WNW,301,1.0,4.0,40,0.00,,,0.00,881,WeatherCatV1.20B785,2013-09-04 17:44:00,
2013-09-04 13:45:00,79.8,54.0,30.05,WNW,301,1.0,4.0,41,0.00,,,0.00,877,WeatherCatV1.20B785,2013-09-04 17:45:00,
2013-09-04 13:48:00,80.1,54.2,30.05,WNW,287,2.0,4.0,41,0.00,,,0.00,877,WeatherCatV1.20B785,2013-09-04 17:48:00,
2013-09-04 13:49:00,80.1,53.6,30.05,NW,305,3.0,3.0,40,0.00,,,0.00,56,WeatherCatV1.20B785,2013-09-04 17:49:00,
2013-09-04 13:50:00,80.1,53.6,30.05,NW,305,0.0,3.0,40,0.00,,,0.00,56,WeatherCatV1.20B785,2013-09-04 17:50:00,
2013-09-04 13:51:00,80.2,53.7,30.05,NW,305,1.0,3.0,40,0.00,,,0.00,56,WeatherCatV1.20B785,2013-09-04 17:51:00,
2013-09-04 13:54:00,80.3,53.8,30.05,NW,313,0.0,1.0,40,0.00,,,0.00,70,WeatherCatV1.20B785,2013-09-04 17:54:00,
2013-09-04 13:55:00,80.4,53.2,30.05,North,354,0.0,2.0,39,0.00,,,0.00,587,WeatherCatV1.20B785,2013-09-04 17:55:00,
2013-09-04 13:57:00,80.5,55.3,30.05,NW,306,2.0,4.0,42,0.00,,,0.00,350,WeatherCatV1.20B785,2013-09-04 17:57:00,
2013-09-04 13:59:00,80.6,54.7,30.05,WNW,299,2.0,3.0,41,0.00,,,0.00,350,WeatherCatV1.20B785,2013-09-04 17:59:00,
2013-09-04 14:00:00,80.6,56.0,30.05,WSW,238,2.0,4.0,43,0.00,,,0.00,849,WeatherCatV1.20B785,2013-09-04 18:00:00,
2013-09-04 14:01:00,80.7,56.1,30.05,WNW,285,3.0,4.0,43,0.00,,,0.00,849,WeatherCatV1.20B785,2013-09-04 18:01:00,
2013-09-04 14:02:00,80.7,55.5,30.05,NW,323,3.0,5.0,42,0.00,,,0.00,849,WeatherCatV1.20B785,2013-09-04 18:02:00,
2013-09-04 14:04:00,80.7,54.1,30.04,WNW,302,2.0,2.0,40,0.00,,,0.00,76,WeatherCatV1.20B785,2013-09-04 18:04:00,
2013-09-04 14:05:00,80.7,54.1,30.05,WNW,303,2.0,2.0,40,0.00,,,0.00,76,WeatherCatV1.20B785,2013-09-04 18:05:00,
2013-09-04 14:06:00,80.7,54.8,30.05,WNW,303,1.0,2.0,41,0.00,,,0.00,76,WeatherCatV1.20B785,2013-09-04 18:06:00,
2013-09-04 14:07:00,80.7,52.7,30.04,SW,233,1.0,2.0,38,0.00,,,0.00,863,WeatherCatV1.20B785,2013-09-04 18:07:00,
2013-09-04 14:10:00,80.7,54.1,30.04,ESE,111,1.0,2.0,40,0.00,,,0.00,860,WeatherCatV1.20B785,2013-09-04 18:10:00,
2013-09-04 14:11:00,80.7,54.8,30.04,WNW,300,3.0,3.0,41,0.00,,,0.00,860,WeatherCatV1.20B785,2013-09-04 18:11:00,
2013-09-04 14:12:00,80.8,54.9,30.04,West,277,0.0,5.0,41,0.00,,,0.00,837,WeatherCatV1.20B785,2013-09-04 18:12:00,
2013-09-04 14:15:00,81.0,56.4,30.04,West,275,1.0,2.0,43,0.00,,,0.00,837,WeatherCatV1.20B785,2013-09-04 18:15:00,
2013-09-04 14:16:00,81.1,55.1,30.04,West,277,1.0,2.0,41,0.00,,,0.00,837,WeatherCatV1.20B785,2013-09-04 18:16:00,
2013-09-04 14:17:00,81.2,55.9,30.04,NW,322,0.0,3.0,42,0.00,,,0.00,856,WeatherCatV1.20B785,2013-09-04 18:17:00,
2013-09-04 14:20:00,81.6,56.2,30.04,NNW,347,0.0,1.0,42,0.00,,,0.00,858,WeatherCatV1.20B785,2013-09-04 18:20:00,
2013-09-04 14:21:00,81.8,56.4,30.04,NW,312,2.0,3.0,42,0.00,,,0.00,856,WeatherCatV1.20B785,2013-09-04 18:21:00,
2013-09-04 14:22:00,81.9,54.5,30.04,NW,306,0.0,3.0,39,0.00,,,0.00,853,WeatherCatV1.20B785,2013-09-04 18:22:00,
2013-09-04 14:24:00,82.0,57.3,30.04,WSW,253,3.0,5.0,43,0.00,,,0.00,788,WeatherCatV1.20B785,2013-09-04 18:24:00,
2013-09-04 14:26:00,82.2,56.8,30.04,WNW,290,0.0,3.0,42,0.00,,,0.00,359,WeatherCatV1.20B785,2013-09-04 18:26:00,
2013-09-04 14:27:00,82.3,55.5,30.04,West,271,2.0,3.0,40,0.00,,,0.00,664,WeatherCatV1.20B785,2013-09-04 18:27:00,
2013-09-04 14:28:00,82.3,55.5,30.03,SSW,196,1.0,3.0,40,0.00,,,0.00,664,WeatherCatV1.20B785,2013-09-04 18:28:00,
2013-09-04 14:30:00,82.3,54.1,30.03,SSW,209,0.0,1.0,38,0.00,,,0.00,664,WeatherCatV1.20B785,2013-09-04 18:30:00,
2013-09-04 14:31:00,82.4,56.3,30.03,SE,142,0.0,1.0,41,0.00,,,0.00,211,WeatherCatV1.20B785,2013-09-04 18:31:00,
2013-09-04 14:33:00,82.3,56.9,30.03,NW,308,3.0,3.0,42,0.00,,,0.00,274,WeatherCatV1.20B785,2013-09-04 18:33:00,
2013-09-04 14:35:00,82.4,56.3,30.03,NNW,335,2.0,6.0,41,0.00,,,0.00,338,WeatherCatV1.20B785,2013-09-04 18:35:00,
2013-09-04 14:36:00,82.4,56.3,30.03,NW,306,3.0,6.0,41,0.00,,,0.00,338,WeatherCatV1.20B785,2013-09-04 18:36:00,
2013-09-04 14:37:00,82.4,56.3,30.03,North,351,4.0,7.0,41,0.00,,,0.00,338,WeatherCatV1.20B785,2013-09-04 18:37:00,
2013-09-04 14:38:00,82.2,54.0,30.03,NNE,12,0.0,7.0,38,0.00,,,0.00,795,WeatherCatV1.20B785,2013-09-04 18:38:00,
2013-09-04 14:40:00,81.7,55.0,30.03,WNW,295,1.0,3.0,40,0.00,,,0.00,795,WeatherCatV1.20B785,2013-09-04 18:40:00,
2013-09-04 14:41:00,81.6,56.2,30.03,ENE,68,1.0,3.0,42,0.00,,,0.00,795,WeatherCatV1.20B785,2013-09-04 18:41:00,
2013-09-04 14:42:00,81.5,54.8,30.03,SE,139,2.0,3.0,40,0.00,,,0.00,823,WeatherCatV1.20B785,2013-09-04 18:42:00,
2013-09-04 14:43:00,81.3,55.3,30.03,SSW,212,1.0,2.0,41,0.00,,,0.00,817,WeatherCatV1.20B785,2013-09-04 18:43:00,
2013-09-04 14:44:00,81.3,55.3,30.03,SSW,212,1.0,2.0,41,0.00,,,0.00,817,WeatherCatV1.20B785,2013-09-04 18:44:00,
2013-09-04 14:45:00,81.2,56.5,30.03,WSW,254,0.0,2.0,43,0.00,,,0.00,758,WeatherCatV1.20B785,2013-09-04 18:45:00,
2013-09-04 14:46:00,81.2,57.8,30.03,West,269,3.0,3.0,45,0.00,,,0.00,758,WeatherCatV1.20B785,2013-09-04 18:46:00,
2013-09-04 14:47:00,81.2,55.2,30.03,WNW,303,4.0,5.0,41,0.00,,,0.00,758,WeatherCatV1.20B785,2013-09-04 18:47:00,
2013-09-04 14:48:00,81.3,57.3,30.03,WSW,241,0.0,5.0,44,0.00,,,0.00,53,WeatherCatV1.20B785,2013-09-04 18:48:00,
2013-09-04 14:49:00,81.4,56.7,30.03,WSW,240,2.0,2.0,43,0.00,,,0.00,53,WeatherCatV1.20B785,2013-09-04 18:49:00,
2013-09-04 14:50:00,81.4,54.7,30.03,WNW,299,2.0,2.0,40,0.00,,,0.00,53,WeatherCatV1.20B785,2013-09-04 18:50:00,
2013-09-04 14:51:00,81.5,54.8,30.03,WNW,294,5.0,5.0,40,0.00,,,0.00,53,WeatherCatV1.20B785,2013-09-04 18:51:00,
2013-09-04 14:52:00,81.6,57.5,30.03,SW,233,1.0,5.0,44,0.00,,,0.00,76,WeatherCatV1.20B785,2013-09-04 18:52:00,
2013-09-04 14:54:00,81.8,55.1,30.03,South,187,1.0,2.0,40,0.00,,,0.00,76,WeatherCatV1.20B785,2013-09-04 18:54:00,
2013-09-04 14:55:00,82.0,57.3,30.03,WNW,285,2.0,3.0,43,0.00,,,0.00,803,WeatherCatV1.20B785,2013-09-04 18:55:00,
2013-09-04 14:56:00,82.1,55.3,30.03,WNW,301,2.0,3.0,40,0.00,,,0.00,803,WeatherCatV1.20B785,2013-09-04 18:56:00,
2013-09-04 14:57:00,82.1,54.7,30.03,West,281,2.0,2.0,39,0.00,,,0.00,802,WeatherCatV1.20B785,2013-09-04 18:57:00,
2013-09-04 15:00:00,82.3,54.8,30.03,West,280,2.0,2.0,39,0.00,,,0.00,798,WeatherCatV1.20B785,2013-09-04 19:00:00,
2013-09-04 15:02:00,82.4,53.5,30.03,WNW,286,1.0,4.0,37,0.00,,,0.00,795,WeatherCatV1.20B785,2013-09-04 19:02:00,
2013-09-04 15:03:00,82.4,53.5,30.03,WSW,248,0.0,4.0,37,0.00,,,0.00,793,WeatherCatV1.20B785,2013-09-04 19:03:00,
2013-09-04 15:05:00,82.5,52.8,30.03,ESE,112,1.0,2.0,36,0.00,,,0.00,789,WeatherCatV1.20B785,2013-09-04 19:05:00,
2013-09-04 15:06:00,82.5,54.3,30.03,WNW,292,1.0,2.0,38,0.00,,,0.00,791,WeatherCatV1.20B785,2013-09-04 19:06:00,
2013-09-04 15:07:00,82.6,55.1,30.03,WNW,297,2.0,2.0,39,0.00,,,0.00,791,WeatherCatV1.20B785,2013-09-04 19:07:00,
2013-09-04 15:08:00,82.6,55.1,30.03,NW,316,3.0,3.0,39,0.00,,,0.00,789,WeatherCatV1.20B785,2013-09-04 19:08:00,
2013-09-04 15:10:00,82.8,56.7,30.03,NW,316,2.0,3.0,41,0.00,,,0.00,784,WeatherCatV1.20B785,2013-09-04 19:10:00,
2013-09-04 15:11:00,82.8,53.1,30.03,WNW,285,0.0,5.0,36,0.00,,,0.00,779,WeatherCatV1.20B785,2013-09-04 19:11:00,
2013-09-04 15:12:00,82.9,53.2,30.03,West,268,1.0,5.0,36,0.00,,,0.00,775,WeatherCatV1.20B785,2013-09-04 19:12:00,
2013-09-04 15:13:00,82.9,52.4,30.03,WNW,296,2.0,3.0,35,0.00,,,0.00,775,WeatherCatV1.20B785,2013-09-04 19:13:00,
2013-09-04 15:15:00,83.1,55.5,30.03,SW,225,0.0,1.0,39,0.00,,,0.00,772,WeatherCatV1.20B785,2013-09-04 19:15:00,
2013-09-04 15:16:00,83.2,58.3,30.03,SW,225,0.0,0.0,43,0.00,,,0.00,766,WeatherCatV1.20B785,2013-09-04 19:16:00,
2013-09-04 15:17:00,83.4,55.1,30.02,SSE,147,0.0,2.0,38,0.00,,,0.00,765,WeatherCatV1.20B785,2013-09-04 19:17:00,
2013-09-04 15:20:00,83.2,55.6,30.02,NW,307,1.0,3.0,39,0.00,,,0.00,752,WeatherCatV1.20B785,2013-09-04 19:20:00,
2013-09-04 15:21:00,83.2,57.7,30.03,WNW,283,2.0,3.0,42,0.00,,,0.00,751,WeatherCatV1.20B785,2013-09-04 19:21:00,
2013-09-04 15:22:00,83.3,57.8,30.03,NW,304,3.0,3.0,42,0.00,,,0.00,751,WeatherCatV1.20B785,2013-09-04 19:22:00,
2013-09-04 15:25:00,83.5,57.3,30.03,NW,316,2.0,4.0,41,0.00,,,0.00,744,WeatherCatV1.20B785,2013-09-04 19:25:00,
2013-09-04 15:26:00,83.5,55.9,30.02,West,277,1.0,3.0,39,0.00,,,0.00,744,WeatherCatV1.20B785,2013-09-04 19:26:00,
2013-09-04 15:27:00,83.5,56.6,30.02,West,273,0.0,3.0,40,0.00,,,0.00,738,WeatherCatV1.20B785,2013-09-04 19:27:00,
2013-09-04 15:28:00,83.6,56.7,30.02,West,270,0.0,1.0,40,0.00,,,0.00,738,WeatherCatV1.20B785,2013-09-04 19:28:00,
2013-09-04 15:31:00,83.7,55.4,30.02,WNW,302,3.0,6.0,38,0.00,,,0.00,735,WeatherCatV1.20B785,2013-09-04 19:31:00,
2013-09-04 15:32:00,83.7,55.4,30.02,WNW,285,2.0,6.0,38,0.00,,,0.00,735,WeatherCatV1.20B785,2013-09-04 19:32:00,
2013-09-04 15:33:00,83.7,56.8,30.02,West,264,1.0,6.0,40,0.00,,,0.00,733,WeatherCatV1.20B785,2013-09-04 19:33:00,
2013-09-04 15:34:00,83.8,54.7,30.02,West,269,3.0,6.0,37,0.00,,,0.00,731,WeatherCatV1.20B785,2013-09-04 19:34:00,
2013-09-04 15:37:00,83.9,54.0,30.02,NNW,339,0.0,2.0,36,0.00,,,0.00,722,WeatherCatV1.20B785,2013-09-04 19:37:00,
2013-09-04 15:38:00,83.8,56.2,30.02,East,97,0.0,2.0,39,0.00,,,0.00,719,WeatherCatV1.20B785,2013-09-04 19:38:00,
2013-09-04 15:40:00,83.9,59.6,30.02,WNW,300,4.0,4.0,44,0.00,,,0.00,715,WeatherCatV1.20B785,2013-09-04 19:40:00,
2013-09-04 15:42:00,83.9,57.0,30.02,NW,307,2.0,4.0,40,0.00,,,0.00,671,WeatherCatV1.20B785,2013-09-04 19:42:00,
2013-09-04 15:43:00,83.9,57.6,30.02,WNW,291,1.0,4.0,41,0.00,,,0.00,671,WeatherCatV1.20B785,2013-09-04 19:43:00,
2013-09-04 15:46:00,83.9,54.8,30.02,West,267,2.0,5.0,37,0.00,,,0.00,696,WeatherCatV1.20B785,2013-09-04 19:46:00,
2013-09-04 15:47:00,83.8,52.4,30.02,SW,226,2.0,3.0,34,0.00,,,0.00,691,WeatherCatV1.20B785,2013-09-04 19:47:00,
2013-09-04 15:48:00,83.7,53.1,30.02,WSW,250,1.0,3.0,35,0.00,,,0.00,691,WeatherCatV1.20B785,2013-09-04 19:48:00,
2013-09-04 15:49:00,83.6,55.3,30.02,WNW,287,2.0,3.0,38,0.00,,,0.00,689,WeatherCatV1.20B785,2013-09-04 19:49:00,
2013-09-04 15:51:00,83.5,54.5,30.02,North,355,1.0,2.0,37,0.00,,,0.00,682,WeatherCatV1.20B785,2013-09-04 19:51:00,
2013-09-04 15:52:00,83.5,53.7,30.02,NW,304,6.0,7.0,36,0.00,,,0.00,679,WeatherCatV1.20B785,2013-09-04 19:52:00,
2013-09-04 15:53:00,83.4,54.4,30.02,West,279,2.0,8.0,37,0.00,,,0.00,679,WeatherCatV1.20B785,2013-09-04 19:53:00,
2013-09-04 15:54:00,83.2,56.3,30.02,West,278,3.0,8.0,40,0.00,,,0.00,675,WeatherCatV1.20B785,2013-09-04 19:54:00,
2013-09-04 15:57:00,83.1,53.3,30.02,West,269,1.0,4.0,36,0.00,,,0.00,664,WeatherCatV1.20B785,2013-09-04 19:57:00,
2013-09-04 15:58:00,83.1,54.8,30.02,NW,312,0.0,1.0,38,0.00,,,0.00,661,WeatherCatV1.20B785,2013-09-04 19:58:00,
2013-09-04 15:59:00,83.0,57.5,30.02,NNW,333,0.0,1.0,42,0.00,,,0.00,661,WeatherCatV1.20B785,2013-09-04 19:59:00,
2013-09-04 16:00:00,83.1,55.5,30.02,NW,306,1.0,2.0,39,0.00,,,0.00,654,WeatherCatV1.20B785,2013-09-04 20:00:00,
2013-09-04 16:03:00,83.2,54.2,30.02,NNW,327,1.0,3.0,37,0.00,,,0.00,649,WeatherCatV1.20B785,2013-09-04 20:03:00,
2013-09-04 16:04:00,83.3,55.7,30.02,NE,54,3.0,3.0,39,0.00,,,0.00,645,WeatherCatV1.20B785,2013-09-04 20:04:00,
2013-09-04 16:05:00,83.3,55.7,30.02,WNW,282,1.0,3.0,39,0.00,,,0.00,647,WeatherCatV1.20B785,2013-09-04 20:05:00,
2013-09-04 16:06:00,83.3,55.7,30.02,West,260,2.0,3.0,39,0.00,,,0.00,643,WeatherCatV1.20B785,2013-09-04 20:06:00,
2013-09-04 16:08:00,83.4,59.2,30.02,WNW,282,2.0,3.0,44,0.00,,,0.00,635,WeatherCatV1.20B785,2013-09-04 20:08:00,
2013-09-04 16:09:00,83.4,59.2,30.02,West,280,1.0,3.0,44,0.00,,,0.00,633,WeatherCatV1.20B785,2013-09-04 20:09:00,
2013-09-04 16:10:00,83.5,57.3,30.02,SW,214,0.0,3.0,41,0.00,,,0.00,629,WeatherCatV1.20B785,2013-09-04 20:10:00,
2013-09-04 16:11:00,83.6,56.7,30.02,West,277,3.0,4.0,40,0.00,,,0.00,626,WeatherCatV1.20B785,2013-09-04 20:11:00,
2013-09-04 16:13:00,83.6,55.3,30.02,WSW,250,1.0,3.0,38,0.00,,,0.00,622,WeatherCatV1.20B785,2013-09-04 20:13:00,
2013-09-04 16:14:00,83.5,56.6,30.02,WNW,291,2.0,2.0,40,0.00,,,0.00,619,WeatherCatV1.20B785,2013-09-04 20:14:00,
2013-09-04 16:15:00,83.5,58.0,30.02,WNW,296,2.0,2.0,42,0.00,,,0.00,619,WeatherCatV1.20B785,2013-09-04 20:15:00,
2013-09-04 16:16:00,83.5,57.3,30.02,NW,323,3.0,5.0,41,0.00,,,0.00,540,WeatherCatV1.20B785,2013-09-04 20:16:00,
2013-09-04 16:19:00,83.4,57.9,30.02,NW,326,1.0,3.0,42,0.00,,,0.00,425,WeatherCatV1.20B785,2013-09-04 20:19:00,
2013-09-04 16:20:00,83.3,56.4,30.02,West,274,2.0,3.0,40,0.00,,,0.00,510,WeatherCatV1.20B785,2013-09-04 20:20:00,
2013-09-04 16:21:00,83.3,54.3,30.02,West,274,1.0,3.0,37,0.00,,,0.00,594,WeatherCatV1.20B785,2013-09-04 20:21:00,
2013-09-04 16:22:00,83.3,56.4,30.02,WNW,286,1.0,3.0,40,0.00,,,0.00,594,WeatherCatV1.20B785,2013-09-04 20:22:00,
2013-09-04 16:25:00,83.3,56.4,30.02,West,275,3.0,4.0,40,0.00,,,0.00,589,WeatherCatV1.20B785,2013-09-04 20:25:00,
2013-09-04 16:26:00,83.4,56.5,30.02,NNW,345,3.0,5.0,40,0.00,,,0.00,585,WeatherCatV1.20B785,2013-09-04 20:26:00,
2013-09-04 16:28:00,83.2,55.6,30.02,WNW,290,3.0,4.0,39,0.00,,,0.00,582,WeatherCatV1.20B785,2013-09-04 20:28:00,
2013-09-04 16:30:00,82.9,56.1,30.01,WNW,298,3.0,5.0,40,0.00,,,0.00,564,WeatherCatV1.20B785,2013-09-04 20:30:00,
2013-09-04 16:31:00,82.9,56.1,30.01,WNW,285,2.0,5.0,40,0.00,,,0.00,555,WeatherCatV1.20B785,2013-09-04 20:31:00,
2013-09-04 16:32:00,82.8,56.7,30.01,SW,229,0.0,5.0,41,0.00,,,0.00,547,WeatherCatV1.20B785,2013-09-04 20:32:00,
2013-09-04 16:33:00,82.7,56.6,30.01,WSW,242,1.0,2.0,41,0.00,,,0.00,561,WeatherCatV1.20B785,2013-09-04 20:33:00,
2013-09-04 16:35:00,82.6,54.4,30.02,NW,310,3.0,4.0,38,0.00,,,0.00,555,WeatherCatV1.20B785,2013-09-04 20:35:00,
2013-09-04 16:36:00,82.6,54.4,30.02,NW,310,1.0,4.0,38,0.00,,,0.00,555,WeatherCatV1.20B785,2013-09-04 20:36:00,
2013-09-04 16:37:00,82.6,55.8,30.01,WNW,302,1.0,5.0,40,0.00,,,0.00,552,WeatherCatV1.20B785,2013-09-04 20:37:00,
2013-09-04 16:39:00,82.7,56.6,30.01,WNW,282,2.0,3.0,41,0.00,,,0.00,531,WeatherCatV1.20B785,2013-09-04 20:39:00,
2013-09-04 16:41:00,82.7,55.9,30.02,WNW,296,2.0,4.0,40,0.00,,,0.00,468,WeatherCatV1.20B785,2013-09-04 20:41:00,
2013-09-04 16:42:00,82.7,56.6,30.02,West,277,2.0,6.0,41,0.00,,,0.00,461,WeatherCatV1.20B785,2013-09-04 20:42:00,
2013-09-04 16:43:00,82.8,57.3,30.02,West,273,2.0,6.0,42,0.00,,,0.00,533,WeatherCatV1.20B785,2013-09-04 20:43:00,
2013-09-04 16:44:00,82.8,57.3,30.02,West,273,1.0,3.0,42,0.00,,,0.00,531,WeatherCatV1.20B785,2013-09-04 20:44:00,
2013-09-04 16:46:00,82.9,55.4,30.02,WNW,301,0.0,3.0,39,0.00,,,0.00,508,WeatherCatV1.20B785,2013-09-04 20:46:00,
2013-09-04 16:47:00,83.0,54.0,30.02,West,266,1.0,3.0,37,0.00,,,0.00,497,WeatherCatV1.20B785,2013-09-04 20:47:00,
2013-09-04 16:49:00,83.0,55.5,30.02,SW,235,1.0,1.0,39,0.00,,,0.00,462,WeatherCatV1.20B785,2013-09-04 20:49:00,
2013-09-04 16:51:00,83.0,56.2,30.02,West,280,2.0,5.0,40,0.00,,,0.00,478,WeatherCatV1.20B785,2013-09-04 20:51:00,
2013-09-04 16:52:00,83.0,55.5,30.02,WSW,258,4.0,4.0,39,0.00,,,0.00,483,WeatherCatV1.20B785,2013-09-04 20:52:00,
2013-09-04 16:54:00,82.8,56.0,30.02,West,259,2.0,4.0,40,0.00,,,0.00,490,WeatherCatV1.20B785,2013-09-04 20:54:00,
2013-09-04 16:55:00,82.8,56.0,30.02,West,269,1.0,4.0,40,0.00,,,0.00,490,WeatherCatV1.20B785,2013-09-04 20:55:00,
2013-09-04 16:56:00,82.7,55.2,30.02,West,268,2.0,4.0,39,0.00,,,0.00,485,WeatherCatV1.20B785,2013-09-04 20:56:00,
2013-09-04 16:57:00,82.7,56.6,30.02,West,268,1.0,4.0,41,0.00,,,0.00,485,WeatherCatV1.20B785,2013-09-04 20:57:00,
2013-09-04 17:00:00,82.5,55.7,30.02,NW,308,1.0,5.0,40,0.00,,,0.00,475,WeatherCatV1.20B785,2013-09-04 21:00:00,
2013-09-04 17:01:00,82.4,56.3,30.02,WNW,300,2.0,5.0,41,0.00,,,0.00,471,WeatherCatV1.20B785,2013-09-04 21:01:00,
2013-09-04 17:02:00,82.4,56.3,30.02,WNW,300,3.0,3.0,41,0.00,,,0.00,469,WeatherCatV1.20B785,2013-09-04 21:02:00,
2013-09-04 17:06:00,82.0,55.3,30.02,West,266,2.0,5.0,40,0.00,,,0.00,455,WeatherCatV1.20B785,2013-09-04 21:06:00,
2013-09-04 17:07:00,82.0,56.0,30.02,West,260,0.0,5.0,41,0.00,,,0.00,452,WeatherCatV1.20B785,2013-09-04 21:07:00,
2013-09-04 17:08:00,81.9,55.9,30.02,WNW,293,3.0,3.0,41,0.00,,,0.00,441,WeatherCatV1.20B785,2013-09-04 21:08:00,
2013-09-04 17:09:00,81.9,56.5,30.02,SW,235,2.0,3.0,42,0.00,,,0.00,445,WeatherCatV1.20B785,2013-09-04 21:09:00,
2013-09-04 17:11:00,81.8,55.1,30.02,WNW,283,0.0,4.0,40,0.00,,,0.00,438,WeatherCatV1.20B785,2013-09-04 21:11:00,
2013-09-04 17:12:00,81.8,56.4,30.02,WNW,301,1.0,2.0,42,0.00,,,0.00,431,WeatherCatV1.20B785,2013-09-04 21:12:00,
2013-09-04 17:13:00,81.8,56.4,30.02,WNW,301,0.0,2.0,42,0.00,,,0.00,431,WeatherCatV1.20B785,2013-09-04 21:13:00,
2013-09-04 17:14:00,81.8,56.4,30.02,WNW,301,0.0,2.0,42,0.00,,,0.00,427,WeatherCatV1.20B785,2013-09-04 21:14:00,
2013-09-04 17:15:00,81.8,57.1,30.02,WNW,301,0.0,2.0,43,0.00,,,0.00,424,WeatherCatV1.20B785,2013-09-04 21:15:00,
2013-09-04 17:17:00,81.9,55.9,30.02,WSW,244,2.0,2.0,41,0.00,,,0.00,420,WeatherCatV1.20B785,2013-09-04 21:17:00,
2013-09-04 17:18:00,82.0,56.0,30.02,WSW,241,2.0,3.0,41,0.00,,,0.00,418,WeatherCatV1.20B785,2013-09-04 21:18:00,
2013-09-04 17:19:00,82.0,55.3,30.02,WSW,241,0.0,1.0,40,0.00,,,0.00,411,WeatherCatV1.20B785,2013-09-04 21:19:00,
2013-09-04 17:21:00,82.0,57.3,30.02,NW,314,3.0,3.0,43,0.00,,,0.00,408,WeatherCatV1.20B785,2013-09-04 21:21:00,
2013-09-04 17:22:00,82.1,58.0,30.02,WNW,302,2.0,4.0,44,0.00,,,0.00,399,WeatherCatV1.20B785,2013-09-04 21:22:00,
2013-09-04 17:23:00,82.1,56.7,30.02,West,280,2.0,4.0,42,0.00,,,0.00,399,WeatherCatV1.20B785,2013-09-04 21:23:00,
2013-09-04 17:25:00,82.1,56.7,30.02,WSW,254,0.0,3.0,42,0.00,,,0.00,392,WeatherCatV1.20B785,2013-09-04 21:25:00,
2013-09-04 17:26:00,82.1,59.2,30.02,West,268,0.0,1.0,46,0.00,,,0.00,390,WeatherCatV1.20B785,2013-09-04 21:26:00,
2013-09-04 17:27:00,82.1,57.4,30.02,WNW,288,1.0,2.0,43,0.00,,,0.00,387,WeatherCatV1.20B785,2013-09-04 21:27:00,
2013-09-04 17:28:00,82.1,57.4,30.02,WSW,241,0.0,3.0,43,0.00,,,0.00,380,WeatherCatV1.20B785,2013-09-04 21:28:00,
2013-09-04 17:29:00,82.1,57.4,30.02,WNW,301,1.0,3.0,43,0.00,,,0.00,378,WeatherCatV1.20B785,2013-09-04 21:29:00,
2013-09-04 17:30:00,82.1,57.4,30.02,NW,314,3.0,3.0,43,0.00,,,0.00,374,WeatherCatV1.20B785,2013-09-04 21:30:00,
2013-09-04 17:31:00,82.1,57.4,30.02,NW,312,3.0,3.0,43,0.00,,,0.00,373,WeatherCatV1.20B785,2013-09-04 21:31:00,
2013-09-04 17:32:00,82.1,56.0,30.02,NW,306,2.0,3.0,41,0.00,,,0.00,369,WeatherCatV1.20B785,2013-09-04 21:32:00,
2013-09-04 17:33:00,81.9,56.5,30.02,WNW,295,1.0,5.0,42,0.00,,,0.00,360,WeatherCatV1.20B785,2013-09-04 21:33:00,
2013-09-04 17:34:00,81.8,57.7,30.02,WNW,292,1.0,1.0,44,0.00,,,0.00,357,WeatherCatV1.20B785,2013-09-04 21:34:00,
2013-09-04 17:35:00,81.8,57.7,30.02,WNW,292,1.0,1.0,44,0.00,,,0.00,353,WeatherCatV1.20B785,2013-09-04 21:35:00,
2013-09-04 17:37:00,81.6,56.9,30.02,West,266,6.0,6.0,43,0.00,,,0.00,348,WeatherCatV1.20B785,2013-09-04 21:37:00,
2013-09-04 17:38:00,81.5,56.8,30.02,WNW,293,2.0,6.0,43,0.00,,,0.00,343,WeatherCatV1.20B785,2013-09-04 21:38:00,
2013-09-04 17:39:00,81.5,56.8,30.02,NW,304,2.0,2.0,43,0.00,,,0.00,320,WeatherCatV1.20B785,2013-09-04 21:39:00,
2013-09-04 17:40:00,81.4,56.7,30.01,NW,315,0.0,2.0,43,0.00,,,0.00,230,WeatherCatV1.20B785,2013-09-04 21:40:00,
2013-09-04 17:41:00,81.3,56.0,30.01,NW,312,3.0,3.0,42,0.00,,,0.00,230,WeatherCatV1.20B785,2013-09-04 21:41:00,
2013-09-04 17:42:00,81.2,58.4,30.01,WSW,258,2.0,3.0,46,0.00,,,0.00,113,WeatherCatV1.20B785,2013-09-04 21:42:00,
2013-09-04 17:44:00,81.0,57.0,30.01,WNW,298,1.0,3.0,44,0.00,,,0.00,113,WeatherCatV1.20B785,2013-09-04 21:44:00,
2013-09-04 17:45:00,80.9,57.5,30.01,WSW,258,2.0,2.0,45,0.00,,,0.00,185,WeatherCatV1.20B785,2013-09-04 21:45:00,
2013-09-04 17:46:00,80.8,56.8,30.01,SW,215,1.0,5.0,44,0.00,,,0.00,109,WeatherCatV1.20B785,2013-09-04 21:46:00,
2013-09-04 17:47:00,80.7,57.4,30.01,WSW,250,2.0,5.0,45,0.00,,,0.00,77,WeatherCatV1.20B785,2013-09-04 21:47:00,
2013-09-04 17:49:00,80.5,55.9,30.01,NW,306,2.0,3.0,43,0.00,,,0.00,74,WeatherCatV1.20B785,2013-09-04 21:49:00,
2013-09-04 17:50:00,80.4,57.1,30.01,WNW,289,2.0,3.0,45,0.00,,,0.00,74,WeatherCatV1.20B785,2013-09-04 21:50:00,
2013-09-04 17:52:00,80.2,56.9,30.02,WNW,296,3.0,3.0,45,0.00,,,0.00,49,WeatherCatV1.20B785,2013-09-04 21:52:00,
2013-09-04 17:53:00,80.2,56.9,30.02,WNW,300,3.0,3.0,45,0.00,,,0.00,44,WeatherCatV1.20B785,2013-09-04 21:53:00,
2013-09-04 17:54:00,80.0,56.7,30.01,West,281,3.0,4.0,45,0.00,,,0.00,56,WeatherCatV1.20B785,2013-09-04 21:54:00,
2013-09-04 17:55:00,80.0,56.1,30.01,West,281,2.0,4.0,44,0.00,,,0.00,56,WeatherCatV1.20B785,2013-09-04 21:55:00,
2013-09-04 17:58:00,79.7,55.8,30.01,WSW,238,0.0,3.0,44,0.00,,,0.00,49,WeatherCatV1.20B785,2013-09-04 21:58:00,
2013-09-04 17:59:00,79.7,56.5,30.01,WSW,252,1.0,3.0,45,0.00,,,0.00,49,WeatherCatV1.20B785,2013-09-04 21:59:00,
2013-09-04 18:00:00,79.6,56.4,30.01,WSW,240,1.0,2.0,45,0.00,,,0.00,67,WeatherCatV1.20B785,2013-09-04 22:00:00,
2013-09-04 18:03:00,79.5,56.9,30.01,West,274,2.0,3.0,46,0.00,,,0.00,49,WeatherCatV1.20B785,2013-09-04 22:03:00,
2013-09-04 18:04:00,79.4,58.5,30.01,West,280,1.0,2.0,49,0.00,,,0.00,60,WeatherCatV1.20B785,2013-09-04 22:04:00,
2013-09-04 18:05:00,79.3,57.3,30.01,West,280,0.0,2.0,47,0.00,,,0.00,53,WeatherCatV1.20B785,2013-09-04 22:05:00,
2013-09-04 18:06:00,79.3,57.9,30.01,West,279,1.0,2.0,48,0.00,,,0.00,39,WeatherCatV1.20B785,2013-09-04 22:06:00,
2013-09-04 18:08:00,79.2,57.2,30.01,West,279,1.0,2.0,47,0.00,,,0.00,33,WeatherCatV1.20B785,2013-09-04 22:08:00,
2013-09-04 18:10:00,79.1,58.3,30.01,WSW,256,0.0,2.0,49,0.00,,,0.00,33,WeatherCatV1.20B785,2013-09-04 22:10:00,
2013-09-04 18:13:00,78.9,56.9,30.02,West,269,1.0,3.0,47,0.00,,,0.00,39,WeatherCatV1.20B785,2013-09-04 22:13:00,
2013-09-04 18:14:00,78.8,57.4,30.02,West,269,1.0,2.0,48,0.00,,,0.00,35,WeatherCatV1.20B785,2013-09-04 22:14:00,
2013-09-04 18:15:00,78.8,58.0,30.01,WNW,303,2.0,2.0,49,0.00,,,0.00,49,WeatherCatV1.20B785,2013-09-04 22:15:00,
2013-09-04 18:16:00,78.7,57.3,30.02,WNW,301,2.0,3.0,48,0.00,,,0.00,40,WeatherCatV1.20B785,2013-09-04 22:16:00,
2013-09-04 18:17:00,78.7,57.3,30.02,WNW,301,1.0,3.0,48,0.00,,,0.00,35,WeatherCatV1.20B785,2013-09-04 22:17:00,
2013-09-04 18:18:00,78.7,58.5,30.01,WNW,301,0.0,3.0,50,0.00,,,0.00,32,WeatherCatV1.20B785,2013-09-04 22:18:00,
2013-09-04 18:19:00,78.6,57.8,30.01,WNW,301,1.0,2.0,49,0.00,,,0.00,32,WeatherCatV1.20B785,2013-09-04 22:19:00,
2013-09-04 18:21:00,78.5,57.2,30.01,WNW,301,0.0,1.0,48,0.00,,,0.00,32,WeatherCatV1.20B785,2013-09-04 22:21:00,
2013-09-04 18:23:00,78.5,58.3,30.01,WNW,301,1.0,1.0,50,0.00,,,0.00,32,WeatherCatV1.20B785,2013-09-04 22:23:00,
2013-09-04 18:24:00,78.5,58.3,30.01,WNW,301,1.0,2.0,50,0.00,,,0.00,33,WeatherCatV1.20B785,2013-09-04 22:24:00,
2013-09-04 18:26:00,78.4,58.8,30.01,WNW,301,0.0,1.0,51,0.00,,,0.00,28,WeatherCatV1.20B785,2013-09-04 22:26:00,
2013-09-04 18:27:00,78.3,58.7,30.01,WNW,301,0.0,0.0,51,0.00,,,0.00,28,WeatherCatV1.20B785,2013-09-04 22:27:00,
2013-09-04 18:28:00,78.3,58.7,30.01,WNW,301,0.0,0.0,51,0.00,,,0.00,28,WeatherCatV1.20B785,2013-09-04 22:28:00,
2013-09-04 18:29:00,78.2,59.1,30.01,WNW,301,0.0,0.0,52,0.00,,,0.00,28,WeatherCatV1.20B785,2013-09-04 22:29:00,
2013-09-04 18:30:00,78.2,59.1,30.01,WNW,301,0.0,0.0,52,0.00,,,0.00,28,WeatherCatV1.20B785,2013-09-04 22:30:00,
2013-09-04 18:31:00,78.1,59.0,30.01,WNW,301,0.0,0.0,52,0.00,,,0.00,26,WeatherCatV1.20B785,2013-09-04 22:31:00,
2013-09-04 18:32:00,78.0,59.5,30.01,WNW,301,0.0,0.0,53,0.00,,,0.00,26,WeatherCatV1.20B785,2013-09-04 22:32:00,
2013-09-04 18:34:00,77.9,59.9,30.01,WNW,301,0.0,1.0,54,0.00,,,0.00,32,WeatherCatV1.20B785,2013-09-04 22:34:00,
2013-09-04 18:35:00,77.8,59.8,30.01,WNW,301,0.0,1.0,54,0.00,,,0.00,26,WeatherCatV1.20B785,2013-09-04 22:35:00,
2013-09-04 18:36:00,77.7,59.7,30.01,West,280,0.0,1.0,54,0.00,,,0.00,26,WeatherCatV1.20B785,2013-09-04 22:36:00,
2013-09-04 18:37:00,77.6,59.1,30.01,West,280,0.0,1.0,53,0.00,,,0.00,26,WeatherCatV1.20B785,2013-09-04 22:37:00,
2013-09-04 18:39:00,77.4,59.4,30.01,West,280,0.0,1.0,54,0.00,,,0.00,28,WeatherCatV1.20B785,2013-09-04 22:39:00,
2013-09-04 18:40:00,77.4,59.4,30.01,West,280,0.0,0.0,54,0.00,,,0.00,28,WeatherCatV1.20B785,2013-09-04 22:40:00,
2013-09-04 18:42:00,77.1,60.2,30.01,West,280,0.0,0.0,56,0.00,,,0.00,26,WeatherCatV1.20B785,2013-09-04 22:42:00,
2013-09-04 18:45:00,76.9,59.5,30.01,West,280,0.0,0.0,55,0.00,,,0.00,23,WeatherCatV1.20B785,2013-09-04 22:45:00,
2013-09-04 18:46:00,76.7,59.8,30.01,West,280,0.0,0.0,56,0.00,,,0.00,23,WeatherCatV1.20B785,2013-09-04 22:46:00,
2013-09-04 18:47:00,76.6,60.2,30.01,West,280,0.0,0.0,57,0.00,,,0.00,23,WeatherCatV1.20B785,2013-09-04 22:47:00,
2013-09-04 18:48:00,76.6,60.2,30.01,West,280,0.0,0.0,57,0.00,,,0.00,23,WeatherCatV1.20B785,2013-09-04 22:48:00,
2013-09-04 18:50:00,76.4,60.0,30.01,West,260,0.0,0.0,57,0.00,,,0.00,21,WeatherCatV1.20B785,2013-09-04 22:50:00,
2013-09-04 18:51:00,76.2,60.3,30.01,West,260,0.0,0.0,58,0.00,,,0.00,21,WeatherCatV1.20B785,2013-09-04 22:51:00,
2013-09-04 18:53:00,76.0,60.6,30.01,West,260,0.0,0.0,59,0.00,,,0.00,21,WeatherCatV1.20B785,2013-09-04 22:53:00,
2013-09-04 18:54:00,75.9,60.5,30.01,West,260,0.0,1.0,59,0.00,,,0.00,21,WeatherCatV1.20B785,2013-09-04 22:54:00,
2013-09-04 18:55:00,75.8,60.4,30.01,West,260,0.0,1.0,59,0.00,,,0.00,19,WeatherCatV1.20B785,2013-09-04 22:55:00,
2013-09-04 18:56:00,75.7,60.3,30.01,West,260,0.0,0.0,59,0.00,,,0.00,19,WeatherCatV1.20B785,2013-09-04 22:56:00,
2013-09-04 18:57:00,75.6,60.2,30.01,West,260,0.0,0.0,59,0.00,,,0.00,19,WeatherCatV1.20B785,2013-09-04 22:57:00,
2013-09-04 18:58:00,75.5,60.2,30.01,West,260,0.0,0.0,59,0.00,,,0.00,19,WeatherCatV1.20B785,2013-09-04 22:58:00,
2013-09-04 18:59:00,75.4,60.1,30.01,West,260,0.0,0.0,59,0.00,,,0.00,19,WeatherCatV1.20B785,2013-09-04 22:59:00,
2013-09-04 19:00:00,75.3,60.4,30.01,West,260,0.0,0.0,60,0.00,,,0.00,19,WeatherCatV1.20B785,2013-09-04 23:00:00,
2013-09-04 19:02:00,75.1,60.2,30.01,West,260,0.0,0.0,60,0.00,,,0.00,18,WeatherCatV1.20B785,2013-09-04 23:02:00,
2013-09-04 19:03:00,75.0,60.2,30.01,West,260,0.0,0.0,60,0.00,,,0.00,18,WeatherCatV1.20B785,2013-09-04 23:03:00,
2013-09-04 19:04:00,74.9,60.1,30.01,West,260,0.0,0.0,60,0.00,,,0.00,18,WeatherCatV1.20B785,2013-09-04 23:04:00,
2013-09-04 19:05:00,74.9,60.5,30.01,West,260,0.0,0.0,61,0.00,,,0.00,18,WeatherCatV1.20B785,2013-09-04 23:05:00,
2013-09-04 19:08:00,74.7,61.2,30.01,West,260,0.0,1.0,63,0.00,,,0.00,16,WeatherCatV1.20B785,2013-09-04 23:08:00,
2013-09-04 19:10:00,74.5,61.5,30.01,West,260,0.0,1.0,64,0.00,,,0.00,16,WeatherCatV1.20B785,2013-09-04 23:10:00,
2013-09-04 19:11:00,74.3,61.3,30.01,West,260,0.0,1.0,64,0.00,,,0.00,14,WeatherCatV1.20B785,2013-09-04 23:11:00,
2013-09-04 19:13:00,74.1,61.6,30.01,West,260,0.0,1.0,65,0.00,,,0.00,14,WeatherCatV1.20B785,2013-09-04 23:13:00,
2013-09-04 19:14:00,74.0,61.9,30.01,West,260,0.0,0.0,66,0.00,,,0.00,14,WeatherCatV1.20B785,2013-09-04 23:14:00,
2013-09-04 19:16:00,73.8,61.7,30.01,West,260,0.0,0.0,66,0.00,,,0.00,12,WeatherCatV1.20B785,2013-09-04 23:16:00,
2013-09-04 19:18:00,73.6,62.0,30.01,West,260,0.0,0.0,67,0.00,,,0.00,12,WeatherCatV1.20B785,2013-09-04 23:18:00,
2013-09-04 19:19:00,73.5,61.4,30.01,West,260,0.0,0.0,66,0.00,,,0.00,12,WeatherCatV1.20B785,2013-09-04 23:19:00,
2013-09-04 19:21:00,73.3,62.1,30.01,West,261,1.0,1.0,68,0.00,,,0.00,11,WeatherCatV1.20B785,2013-09-04 23:21:00,
2013-09-04 19:22:00,73.2,62.0,30.01,West,261,0.0,1.0,68,0.00,,,0.00,11,WeatherCatV1.20B785,2013-09-04 23:22:00,
2013-09-04 19:24:00,73.0,61.8,30.01,West,275,1.0,1.0,68,0.00,,,0.00,9,WeatherCatV1.20B785,2013-09-04 23:24:00,
2013-09-04 19:26:00,72.7,61.5,30.01,West,276,0.0,1.0,68,0.00,,,0.00,9,WeatherCatV1.20B785,2013-09-04 23:26:00,
2013-09-04 19:28:00,72.5,61.7,30.01,West,276,0.0,0.0,69,0.00,,,0.00,7,WeatherCatV1.20B785,2013-09-04 23:28:00,
2013-09-04 19:29:00,72.4,61.6,30.01,West,276,0.0,0.0,69,0.00,,,0.00,7,WeatherCatV1.20B785,2013-09-04 23:29:00,
2013-09-04 19:31:00,72.1,61.8,30.01,West,276,0.0,1.0,70,0.00,,,0.00,7,WeatherCatV1.20B785,2013-09-04 23:31:00,
2013-09-04 19:33:00,71.8,61.5,30.01,West,276,0.0,1.0,70,0.00,,,0.00,5,WeatherCatV1.20B785,2013-09-04 23:33:00,
2013-09-04 19:34:00,71.8,61.5,30.01,West,276,0.0,1.0,70,0.00,,,0.00,5,WeatherCatV1.20B785,2013-09-04 23:34:00,
2013-09-04 19:35:00,71.7,61.4,30.01,West,276,0.0,1.0,70,0.00,,,0.00,5,WeatherCatV1.20B785,2013-09-04 23:35:00,
2013-09-04 19:36:00,71.5,61.6,30.01,West,276,0.0,0.0,71,0.00,,,0.00,5,WeatherCatV1.20B785,2013-09-04 23:36:00,
2013-09-04 19:39:00,71.1,61.6,30.01,West,276,0.0,0.0,72,0.00,,,0.00,0,WeatherCatV1.20B785,2013-09-04 23:39:00,
2013-09-04 19:40:00,70.9,61.4,30.01,West,276,0.0,0.0,72,0.00,,,0.00,0,WeatherCatV1.20B785,2013-09-04 23:40:00,
2013-09-04 19:41:00,70.8,61.3,30.01,West,276,0.0,0.0,72,0.00,,,0.00,0,WeatherCatV1.20B785,2013-09-04 23:41:00,
2013-09-04 19:44:00,70.4,61.3,30.01,West,276,0.0,0.0,73,0.00,,,0.00,0,WeatherCatV1.20B785,2013-09-04 23:44:00,
2013-09-04 19:45:00,70.3,61.2,30.01,West,276,0.0,0.0,73,0.00,,,0.00,0,WeatherCatV1.20B785,2013-09-04 23:45:00,
2013-09-04 19:46:00,70.2,61.1,30.01,West,276,0.0,0.0,73,0.00,,,0.00,0,WeatherCatV1.20B785,2013-09-04 23:46:00,
2013-09-04 19:47:00,70.1,61.0,30.01,West,276,0.0,0.0,73,0.00,,,0.00,0,WeatherCatV1.20B785,2013-09-04 23:47:00,
2013-09-04 19:49:00,69.8,61.1,30.01,West,276,0.0,0.0,74,0.00,,,0.00,0,WeatherCatV1.20B785,2013-09-04 23:49:00,
2013-09-04 19:50:00,69.7,61.0,30.01,West,276,0.0,0.0,74,0.00,,,0.00,0,WeatherCatV1.20B785,2013-09-04 23:50:00,
2013-09-04 19:51:00,69.5,60.8,30.01,West,276,0.0,0.0,74,0.00,,,0.00,0,WeatherCatV1.20B785,2013-09-04 23:51:00,
2013-09-04 19:52:00,69.4,60.7,30.01,West,276,0.0,0.0,74,0.00,,,0.00,0,WeatherCatV1.20B785,2013-09-04 23:52:00,
2013-09-04 19:54:00,69.2,60.9,30.01,West,276,0.0,0.0,75,0.00,,,0.00,0,WeatherCatV1.20B785,2013-09-04 23:54:00,
2013-09-04 19:56:00,69.0,60.7,30.01,West,276,0.0,0.0,75,0.00,,,0.00,0,WeatherCatV1.20B785,2013-09-04 23:56:00,
2013-09-04 19:57:00,68.9,60.6,30.01,West,276,0.0,0.0,75,0.00,,,0.00,0,WeatherCatV1.20B785,2013-09-04 23:57:00,
2013-09-04 19:59:00,68.7,60.5,30.01,West,276,0.0,0.0,75,0.00,,,0.00,0,WeatherCatV1.20B785,2013-09-04 23:59:00,
2013-09-04 20:00:00,68.6,60.3,30.01,West,276,0.0,1.0,75,0.00,,,0.00,0,WeatherCatV1.20B785,2013-09-05 00:00:00,
2013-09-04 20:01:00,68.6,60.7,30.01,West,276,0.0,1.0,76,0.00,,,0.00,0,WeatherCatV1.20B785,2013-09-05 00:01:00,
2013-09-04 20:02:00,68.5,60.6,30.01,West,276,0.0,1.0,76,0.00,,,0.00,0,WeatherCatV1.20B785,2013-09-05 00:02:00,
2013-09-04 20:03:00,68.3,60.4,30.01,West,276,0.0,0.0,76,0.00,,,0.00,0,WeatherCatV1.20B785,2013-09-05 00:03:00,
2013-09-04 20:05:00,68.1,60.2,30.01,West,276,0.0,0.0,76,0.00,,,0.00,0,WeatherCatV1.20B785,2013-09-05 00:05:00,
2013-09-04 20:06:00,68.1,60.2,30.01,West,276,0.0,0.0,76,0.00,,,0.00,0,WeatherCatV1.20B785,2013-09-05 00:06:00,
2013-09-04 20:07:00,67.9,60.4,30.01,West,276,0.0,0.0,77,0.00,,,0.00,0,WeatherCatV1.20B785,2013-09-05 00:07:00,
2013-09-04 20:08:00,67.9,60.4,30.01,West,276,0.0,0.0,77,0.00,,,0.00,0,WeatherCatV1.20B785,2013-09-05 00:08:00,
2013-09-04 20:09:00,67.7,60.2,30.01,West,276,0.0,0.0,77,0.00,,,0.00,0,WeatherCatV1.20B785,2013-09-05 00:09:00,
2013-09-04 20:10:00,67.6,60.1,30.01,West,276,0.0,0.0,77,0.00,,,0.00,0,WeatherCatV1.20B785,2013-09-05 00:10:00,
2013-09-04 20:12:00,67.4,59.9,30.01,West,276,0.0,0.0,77,0.00,,,0.00,0,WeatherCatV1.20B785,2013-09-05 00:12:00,
2013-09-04 20:13:00,67.4,59.9,30.01,West,276,0.0,0.0,77,0.00,,,0.00,0,WeatherCatV1.20B785,2013-09-05 00:13:00,
2013-09-04 20:14:00,67.3,59.8,30.01,West,276,0.0,0.0,77,0.00,,,0.00,0,WeatherCatV1.20B785,2013-09-05 00:14:00,
2013-09-04 20:16:00,67.1,60.0,30.01,West,276,0.0,0.0,78,0.00,,,0.00,0,WeatherCatV1.20B785,2013-09-05 00:16:00,
2013-09-04 20:18:00,67.0,60.3,30.01,West,276,0.0,0.0,79,0.00,,,0.00,0,WeatherCatV1.20B785,2013-09-05 00:18:00,
2013-09-04 20:19:00,66.8,60.1,30.01,West,276,0.0,0.0,79,0.00,,,0.00,0,WeatherCatV1.20B785,2013-09-05 00:19:00,
2013-09-04 20:20:00,66.8,60.1,30.01,West,276,0.0,0.0,79,0.00,,,0.00,0,WeatherCatV1.20B785,2013-09-05 00:20:00,
2013-09-04 20:21:00,66.7,60.0,30.01,West,276,0.0,0.0,79,0.00,,,0.00,0,WeatherCatV1.20B785,2013-09-05 00:21:00,
2013-09-04 20:23:00,66.5,59.8,30.01,West,276,0.0,0.0,79,0.00,,,0.00,0,WeatherCatV1.20B785,2013-09-05 00:23:00,
2013-09-04 20:24:00,66.4,60.0,30.02,West,276,0.0,0.0,80,0.00,,,0.00,0,WeatherCatV1.20B785,2013-09-05 00:24:00,
2013-09-04 20:26:00,66.3,59.9,30.02,West,276,0.0,0.0,80,0.00,,,0.00,0,WeatherCatV1.20B785,2013-09-05 00:26:00,
2013-09-04 20:28:00,66.2,60.2,30.02,West,276,0.0,0.0,81,0.00,,,0.00,0,WeatherCatV1.20B785,2013-09-05 00:28:00,
2013-09-04 20:29:00,66.1,60.1,30.02,West,276,0.0,0.0,81,0.00,,,0.00,0,WeatherCatV1.20B785,2013-09-05 00:29:00,
2013-09-04 20:32:00,65.9,59.9,30.02,West,276,0.0,0.0,81,0.00,,,0.00,0,WeatherCatV1.20B785,2013-09-05 00:32:00,
2013-09-04 20:33:00,65.8,59.8,30.02,West,276,0.0,0.0,81,0.00,,,0.00,0,WeatherCatV1.20B785,2013-09-05 00:33:00,
2013-09-04 20:34:00,65.6,60.0,30.02,West,276,0.0,0.0,82,0.00,,,0.00,0,WeatherCatV1.20B785,2013-09-05 00:34:00,
2013-09-04 20:35:00,65.6,60.0,30.02,West,276,0.0,0.0,82,0.00,,,0.00,0,WeatherCatV1.20B785,2013-09-05 00:35:00,
2013-09-04 20:37:00,65.5,59.8,30.02,West,276,0.0,0.0,82,0.00,,,0.00,0,WeatherCatV1.20B785,2013-09-05 00:37:00,
2013-09-04 20:38:00,65.4,59.8,30.02,West,276,0.0,0.0,82,0.00,,,0.00,0,WeatherCatV1.20B785,2013-09-05 00:38:00,
2013-09-04 20:39:00,65.3,59.7,30.02,West,276,0.0,0.0,82,0.00,,,0.00,0,WeatherCatV1.20B785,2013-09-05 00:39:00,
2013-09-04 20:40:00,65.2,59.6,30.02,West,276,0.0,0.0,82,0.00,,,0.00,0,WeatherCatV1.20B785,2013-09-05 00:40:00,
2013-09-04 20:42:00,65.1,59.5,30.02,West,276,0.0,0.0,82,0.00,,,0.00,0,WeatherCatV1.20B785,2013-09-05 00:42:00,
2013-09-04 20:44:00,64.9,59.3,30.02,West,276,0.0,0.0,82,0.00,,,0.00,0,WeatherCatV1.20B785,2013-09-05 00:44:00,
2013-09-04 20:45:00,64.9,59.3,30.02,West,276,0.0,0.0,82,0.00,,,0.00,0,WeatherCatV1.20B785,2013-09-05 00:45:00,
2013-09-04 20:47:00,64.6,59.0,30.02,West,276,0.0,0.0,82,0.00,,,0.00,0,WeatherCatV1.20B785,2013-09-05 00:47:00,
2013-09-04 20:48:00,64.6,59.0,30.02,West,276,0.0,0.0,82,0.00,,,0.00,0,WeatherCatV1.20B785,2013-09-05 00:48:00,
2013-09-04 20:49:00,64.5,59.2,30.02,West,276,0.0,0.0,83,0.00,,,0.00,0,WeatherCatV1.20B785,2013-09-05 00:49:00,
2013-09-04 20:50:00,64.4,59.1,30.02,West,276,0.0,0.0,83,0.00,,,0.00,0,WeatherCatV1.20B785,2013-09-05 00:50:00,
2013-09-04 20:52:00,64.1,58.8,30.02,West,276,0.0,0.0,83,0.00,,,0.00,0,WeatherCatV1.20B785,2013-09-05 00:52:00,
2013-09-04 20:53:00,64.0,59.1,30.02,West,276,0.0,0.0,84,0.00,,,0.00,0,WeatherCatV1.20B785,2013-09-05 00:53:00,
2013-09-04 20:54:00,64.0,59.1,30.02,West,276,0.0,0.0,84,0.00,,,0.00,0,WeatherCatV1.20B785,2013-09-05 00:54:00,
2013-09-04 20:56:00,63.8,58.9,30.02,West,279,0.0,2.0,84,0.00,,,0.00,0,WeatherCatV1.20B785,2013-09-05 00:56:00,
2013-09-04 20:57:00,63.5,58.6,30.02,West,279,0.0,0.0,84,0.00,,,0.00,0,WeatherCatV1.20B785,2013-09-05 00:57:00,
2013-09-04 20:59:00,63.4,58.8,30.02,West,279,0.0,0.0,85,0.00,,,0.00,0,WeatherCatV1.20B785,2013-09-05 00:59:00,
2013-09-04 21:01:00,63.2,58.6,30.03,West,279,0.0,0.0,85,0.00,,,0.00,0,WeatherCatV1.20B785,2013-09-05 01:01:00,
2013-09-04 21:03:00,63.0,58.4,30.03,West,279,0.0,0.0,85,0.00,,,0.00,0,WeatherCatV1.20B785,2013-09-05 01:03:00,
2013-09-04 21:04:00,62.8,58.2,30.03,West,279,0.0,0.0,85,0.00,,,0.00,0,WeatherCatV1.20B785,2013-09-05 01:04:00,
2013-09-04 21:05:00,62.8,58.2,30.03,West,279,0.0,0.0,85,0.00,,,0.00,0,WeatherCatV1.20B785,2013-09-05 01:05:00,
2013-09-04 21:06:00,62.6,58.3,30.03,West,279,0.0,0.0,86,0.00,,,0.00,0,WeatherCatV1.20B785,2013-09-05 01:06:00,
2013-09-04 21:08:00,62.5,58.2,30.03,West,279,0.0,0.0,86,0.00,,,0.00,0,WeatherCatV1.20B785,2013-09-05 01:08:00,
2013-09-04 21:09:00,62.3,58.0,30.03,West,279,0.0,0.0,86,0.00,,,0.00,0,WeatherCatV1.20B785,2013-09-05 01:09:00,
2013-09-04 21:10:00,62.3,58.0,30.03,West,279,0.0,0.0,86,0.00,,,0.00,0,WeatherCatV1.20B785,2013-09-05 01:10:00,
2013-09-04 21:13:00,62.1,57.9,30.03,West,279,0.0,0.0,86,0.00,,,0.00,0,WeatherCatV1.20B785,2013-09-05 01:13:00,
2013-09-04 21:15:00,62.0,57.8,30.03,West,279,0.0,0.0,86,0.00,,,0.00,0,WeatherCatV1.20B785,2013-09-05 01:15:00,
2013-09-04 21:16:00,61.9,58.0,30.03,West,279,0.0,0.0,87,0.00,,,0.00,0,WeatherCatV1.20B785,2013-09-05 01:16:00,
2013-09-04 21:18:00,61.8,57.9,30.03,West,279,0.0,0.0,87,0.00,,,0.00,0,WeatherCatV1.20B785,2013-09-05 01:18:00,
2013-09-04 21:19:00,61.8,57.9,30.03,West,279,0.0,0.0,87,0.00,,,0.00,0,WeatherCatV1.20B785,2013-09-05 01:19:00,
2013-09-04 21:20:00,61.7,57.8,30.04,West,279,0.0,0.0,87,0.00,,,0.00,0,WeatherCatV1.20B785,2013-09-05 01:20:00,
2013-09-04 21:21:00,61.7,57.8,30.04,West,279,0.0,0.0,87,0.00,,,0.00,0,WeatherCatV1.20B785,2013-09-05 01:21:00,
2013-09-04 21:22:00,61.6,57.7,30.04,West,279,0.0,0.0,87,0.00,,,0.00,0,WeatherCatV1.20B785,2013-09-05 01:22:00,
2013-09-04 21:23:00,61.6,57.7,30.04,West,279,0.0,0.0,87,0.00,,,0.00,0,WeatherCatV1.20B785,2013-09-05 01:23:00,
2013-09-04 21:24:00,61.6,57.7,30.04,West,279,0.0,0.0,87,0.00,,,0.00,0,WeatherCatV1.20B785,2013-09-05 01:24:00,
2013-09-04 21:25:00,61.5,57.6,30.04,West,279,0.0,0.0,87,0.00,,,0.00,0,WeatherCatV1.20B785,2013-09-05 01:25:00,
2013-09-04 21:26:00,61.5,57.6,30.04,West,279,0.0,0.0,87,0.00,,,0.00,0,WeatherCatV1.20B785,2013-09-05 01:26:00,
2013-09-04 21:28:00,61.4,57.5,30.04,West,279,0.0,0.0,87,0.00,,,0.00,0,WeatherCatV1.20B785,2013-09-05 01:28:00,
2013-09-04 21:29:00,61.4,57.5,30.04,West,279,0.0,0.0,87,0.00,,,0.00,0,WeatherCatV1.20B785,2013-09-05 01:29:00,
2013-09-04 21:30:00,61.4,57.8,30.04,West,279,0.0,0.0,88,0.00,,,0.00,0,WeatherCatV1.20B785,2013-09-05 01:30:00,
2013-09-04 21:31:00,61.4,57.8,30.04,West,279,0.0,0.0,88,0.00,,,0.00,0,WeatherCatV1.20B785,2013-09-05 01:31:00,
2013-09-04 21:34:00,61.2,57.3,30.04,West,279,0.0,0.0,87,0.00,,,0.00,0,WeatherCatV1.20B785,2013-09-05 01:34:00,
2013-09-04 21:35:00,61.1,57.5,30.04,West,279,0.0,0.0,88,0.00,,,0.00,0,WeatherCatV1.20B785,2013-09-05 01:35:00,
2013-09-04 21:36:00,61.1,57.5,30.04,West,279,0.0,0.0,88,0.00,,,0.00,0,WeatherCatV1.20B785,2013-09-05 01:36:00,
2013-09-04 21:37:00,61.1,57.5,30.04,West,279,0.0,0.0,88,0.00,,,0.00,0,WeatherCatV1.20B785,2013-09-05 01:37:00,
2013-09-04 21:40:00,61.0,57.4,30.04,West,279,1.0,1.0,88,0.00,,,0.00,0,WeatherCatV1.20B785,2013-09-05 01:40:00,
2013-09-04 21:41:00,61.0,57.4,30.04,West,279,0.0,1.0,88,0.00,,,0.00,0,WeatherCatV1.20B785,2013-09-05 01:41:00,
2013-09-04 21:42:00,60.9,57.3,30.04,West,279,0.0,1.0,88,0.00,,,0.00,0,WeatherCatV1.20B785,2013-09-05 01:42:00,
2013-09-04 21:43:00,60.9,57.3,30.04,West,279,0.0,0.0,88,0.00,,,0.00,0,WeatherCatV1.20B785,2013-09-05 01:43:00,
2013-09-04 21:45:00,60.7,57.1,30.05,West,279,1.0,1.0,88,0.00,,,0.00,0,WeatherCatV1.20B785,2013-09-05 01:45:00,
2013-09-04 21:46:00,60.7,57.1,30.05,West,279,1.0,1.0,88,0.00,,,0.00,0,WeatherCatV1.20B785,2013-09-05 01:46:00,
2013-09-04 21:47:00,60.7,57.1,30.05,West,279,0.0,1.0,88,0.00,,,0.00,0,WeatherCatV1.20B785,2013-09-05 01:47:00,
2013-09-04 21:48:00,60.5,56.9,30.05,West,279,0.0,0.0,88,0.00,,,0.00,0,WeatherCatV1.20B785,2013-09-05 01:48:00,
2013-09-04 21:51:00,60.3,56.7,30.04,West,279,1.0,1.0,88,0.00,,,0.00,0,WeatherCatV1.20B785,2013-09-05 01:51:00,
2013-09-04 21:52:00,60.2,56.6,30.04,West,279,0.0,2.0,88,0.00,,,0.00,0,WeatherCatV1.20B785,2013-09-05 01:52:00,
2013-09-04 21:54:00,60.1,56.5,30.04,WNW,296,2.0,2.0,88,0.00,,,0.00,0,WeatherCatV1.20B785,2013-09-05 01:54:00,
2013-09-04 21:56:00,59.9,56.3,30.04,WNW,296,0.0,1.0,88,0.00,,,0.00,0,WeatherCatV1.20B785,2013-09-05 01:56:00,
2013-09-04 21:57:00,59.9,56.3,30.04,WNW,296,1.0,1.0,88,0.00,,,0.00,0,WeatherCatV1.20B785,2013-09-05 01:57:00,
2013-09-04 21:59:00,59.7,56.1,30.04,WNW,296,0.0,1.0,88,0.00,,,0.00,0,WeatherCatV1.20B785,2013-09-05 01:59:00,
2013-09-04 22:01:00,59.6,56.0,30.04,WNW,296,0.0,1.0,88,0.00,,,0.00,0,WeatherCatV1.20B785,2013-09-05 02:01:00,
2013-09-04 22:02:00,59.6,56.0,30.04,WNW,296,0.0,0.0,88,0.00,,,0.00,0,WeatherCatV1.20B785,2013-09-05 02:02:00,
2013-09-04 22:03:00,59.6,56.0,30.04,WNW,296,0.0,0.0,88,0.00,,,0.00,0,WeatherCatV1.20B785,2013-09-05 02:03:00,
2013-09-04 22:05:00,59.6,56.0,30.04,WNW,296,0.0,0.0,88,0.00,,,0.00,0,WeatherCatV1.20B785,2013-09-05 02:05:00,
2013-09-04 22:07:00,59.5,55.9,30.04,WNW,296,0.0,0.0,88,0.00,,,0.00,0,WeatherCatV1.20B785,2013-09-05 02:07:00,
2013-09-04 22:08:00,59.5,55.9,30.04,WNW,296,0.0,0.0,88,0.00,,,0.00,0,WeatherCatV1.20B785,2013-09-05 02:08:00,
2013-09-04 22:10:00,59.4,55.8,30.04,East,85,0.0,3.0,88,0.00,,,0.00,0,WeatherCatV1.20B785,2013-09-05 02:10:00,
2013-09-04 22:12:00,59.4,55.8,30.04,East,85,0.0,0.0,88,0.00,,,0.00,0,WeatherCatV1.20B785,2013-09-05 02:12:00,
2013-09-04 22:13:00,59.3,55.7,30.05,East,85,0.0,0.0,88,0.00,,,0.00,0,WeatherCatV1.20B785,2013-09-05 02:13:00,
2013-09-04 22:14:00,59.3,55.7,30.04,East,86,0.0,2.0,88,0.00,,,0.00,0,WeatherCatV1.20B785,2013-09-05 02:14:00,
2013-09-04 22:16:00,59.4,55.8,30.05,East,86,0.0,1.0,88,0.00,,,0.00,0,WeatherCatV1.20B785,2013-09-05 02:16:00,
2013-09-04 22:17:00,59.4,55.5,30.05,East,86,0.0,1.0,87,0.00,,,0.00,0,WeatherCatV1.20B785,2013-09-05 02:17:00,
2013-09-04 22:18:00,59.3,55.4,30.05,East,86,0.0,0.0,87,0.00,,,0.00,0,WeatherCatV1.20B785,2013-09-05 02:18:00,
2013-09-04 22:19:00,59.4,55.5,30.05,East,86,0.0,0.0,87,0.00,,,0.00,0,WeatherCatV1.20B785,2013-09-05 02:19:00,
2013-09-04 22:20:00,59.3,55.4,30.05,East,86,0.0,0.0,87,0.00,,,0.00,0,WeatherCatV1.20B785,2013-09-05 02:20:00,
2013-09-04 22:21:00,59.3,55.7,30.05,East,86,0.0,1.0,88,0.00,,,0.00,0,WeatherCatV1.20B785,2013-09-05 02:21:00,
2013-09-04 22:22:00,59.2,55.6,30.05,East,86,0.0,1.0,88,0.00,,,0.00,0,WeatherCatV1.20B785,2013-09-05 02:22:00,
2013-09-04 22:23:00,59.2,55.6,30.05,East,86,0.0,0.0,88,0.00,,,0.00,0,WeatherCatV1.20B785,2013-09-05 02:23:00,
2013-09-04 22:24:00,59.2,55.6,30.05,East,86,0.0,0.0,88,0.00,,,0.00,0,WeatherCatV1.20B785,2013-09-05 02:24:00,
2013-09-04 22:25:00,59.1,55.5,30.05,East,86,0.0,0.0,88,0.00,,,0.00,0,WeatherCatV1.20B785,2013-09-05 02:25:00,
2013-09-04 22:26:00,59.1,55.5,30.05,East,86,0.0,0.0,88,0.00,,,0.00,0,WeatherCatV1.20B785,2013-09-05 02:26:00,
2013-09-04 22:27:00,59.1,55.5,30.05,East,86,0.0,0.0,88,0.00,,,0.00,0,WeatherCatV1.20B785,2013-09-05 02:27:00,
2013-09-04 22:28:00,59.0,55.5,30.05,East,86,0.0,0.0,88,0.00,,,0.00,0,WeatherCatV1.20B785,2013-09-05 02:28:00,
2013-09-04 22:29:00,59.0,55.5,30.05,East,86,0.0,0.0,88,0.00,,,0.00,0,WeatherCatV1.20B785,2013-09-05 02:29:00,
2013-09-04 22:31:00,59.0,55.5,30.06,East,86,0.0,0.0,88,0.00,,,0.00,0,WeatherCatV1.20B785,2013-09-05 02:31:00,
2013-09-04 22:32:00,58.9,55.3,30.06,East,86,0.0,0.0,88,0.00,,,0.00,0,WeatherCatV1.20B785,2013-09-05 02:32:00,
2013-09-04 22:33:00,58.9,55.3,30.06,East,86,0.0,1.0,88,0.00,,,0.00,0,WeatherCatV1.20B785,2013-09-05 02:33:00,
2013-09-04 22:35:00,58.9,55.3,30.06,NNW,341,0.0,2.0,88,0.00,,,0.00,0,WeatherCatV1.20B785,2013-09-05 02:35:00,
2013-09-04 22:36:00,58.8,55.2,30.06,NNW,341,0.0,2.0,88,0.00,,,0.00,0,WeatherCatV1.20B785,2013-09-05 02:36:00,
2013-09-04 22:37:00,58.8,55.2,30.06,NNW,341,2.0,2.0,88,0.00,,,0.00,0,WeatherCatV1.20B785,2013-09-05 02:37:00,
2013-09-04 22:38:00,58.7,55.2,30.06,NNW,341,0.0,2.0,88,0.00,,,0.00,0,WeatherCatV1.20B785,2013-09-05 02:38:00,
2013-09-04 22:39:00,58.7,55.2,30.06,NNW,341,0.0,1.0,88,0.00,,,0.00,0,WeatherCatV1.20B785,2013-09-05 02:39:00,
2013-09-04 22:40:00,58.7,55.2,30.06,NNW,341,0.0,0.0,88,0.00,,,0.00,0,WeatherCatV1.20B785,2013-09-05 02:40:00,
2013-09-04 22:42:00,58.6,55.0,30.06,NNW,341,0.0,1.0,88,0.00,,,0.00,0,WeatherCatV1.20B785,2013-09-05 02:42:00,
2013-09-04 22:43:00,58.6,55.0,30.06,NNW,341,0.0,0.0,88,0.00,,,0.00,0,WeatherCatV1.20B785,2013-09-05 02:43:00,
2013-09-04 22:44:00,58.6,55.0,30.06,NNW,341,0.0,0.0,88,0.00,,,0.00,0,WeatherCatV1.20B785,2013-09-05 02:44:00,
2013-09-04 22:45:00,58.6,55.0,30.06,NNW,341,0.0,0.0,88,0.00,,,0.00,0,WeatherCatV1.20B785,2013-09-05 02:45:00,
2013-09-04 22:47:00,58.5,55.0,30.06,NNW,341,0.0,0.0,88,0.00,,,0.00,0,WeatherCatV1.20B785,2013-09-05 02:47:00,
2013-09-04 22:48:00,58.5,55.0,30.06,NNW,341,0.0,0.0,88,0.00,,,0.00,0,WeatherCatV1.20B785,2013-09-05 02:48:00,
2013-09-04 22:50:00,58.4,54.9,30.06,NNW,341,0.0,0.0,88,0.00,,,0.00,0,WeatherCatV1.20B785,2013-09-05 02:50:00,
2013-09-04 22:51:00,58.4,54.9,30.06,NNW,341,0.0,0.0,88,0.00,,,0.00,0,WeatherCatV1.20B785,2013-09-05 02:51:00,
2013-09-04 22:52:00,58.4,54.5,30.06,NNW,341,0.0,0.0,87,0.00,,,0.00,0,WeatherCatV1.20B785,2013-09-05 02:52:00,
2013-09-04 22:53:00,58.3,54.4,30.06,NNW,341,0.0,0.0,87,0.00,,,0.00,0,WeatherCatV1.20B785,2013-09-05 02:53:00,
2013-09-04 22:55:00,58.3,54.8,30.06,NNW,341,0.0,0.0,88,0.00,,,0.00,0,WeatherCatV1.20B785,2013-09-05 02:55:00,
2013-09-04 22:56:00,58.2,54.7,30.06,NNW,341,0.0,0.0,88,0.00,,,0.00,0,WeatherCatV1.20B785,2013-09-05 02:56:00,
2013-09-04 22:57:00,58.2,54.7,30.06,NNW,341,0.0,0.0,88,0.00,,,0.00,0,WeatherCatV1.20B785,2013-09-05 02:57:00,
2013-09-04 22:58:00,58.1,54.6,30.06,NNW,341,0.0,1.0,88,0.00,,,0.00,0,WeatherCatV1.20B785,2013-09-05 02:58:00,
2013-09-04 23:00:00,58.0,54.5,30.06,NNW,341,0.0,1.0,88,0.00,,,0.00,0,WeatherCatV1.20B785,2013-09-05 03:00:00,
2013-09-04 23:01:00,58.0,54.5,30.06,NNW,341,1.0,1.0,88,0.00,,,0.00,0,WeatherCatV1.20B785,2013-09-05 03:01:00,
2013-09-04 23:02:00,58.0,54.5,30.06,NNW,341,0.0,0.0,88,0.00,,,0.00,0,WeatherCatV1.20B785,2013-09-05 03:02:00,
2013-09-04 23:04:00,57.9,54.4,30.06,NNW,341,1.0,2.0,88,0.00,,,0.00,0,WeatherCatV1.20B785,2013-09-05 03:04:00,
2013-09-04 23:05:00,57.8,54.3,30.06,NNW,341,1.0,2.0,88,0.00,,,0.00,0,WeatherCatV1.20B785,2013-09-05 03:05:00,
2013-09-04 23:07:00,57.7,54.2,30.06,NNW,341,1.0,2.0,88,0.00,,,0.00,0,WeatherCatV1.20B785,2013-09-05 03:07:00,
2013-09-04 23:08:00,57.7,54.2,30.06,NNW,341,0.0,2.0,88,0.00,,,0.00,0,WeatherCatV1.20B785,2013-09-05 03:08:00,
2013-09-04 23:10:00,57.7,54.2,30.06,NW,312,1.0,2.0,88,0.00,,,0.00,0,WeatherCatV1.20B785,2013-09-05 03:10:00,
2013-09-04 23:13:00,57.7,53.8,30.06,NW,312,0.0,0.0,87,0.00,,,0.00,0,WeatherCatV1.20B785,2013-09-05 03:13:00,
2013-09-04 23:15:00,57.6,54.1,30.06,NW,312,0.0,0.0,88,0.00,,,0.00,0,WeatherCatV1.20B785,2013-09-05 03:15:00,
2013-09-04 23:16:00,57.6,54.1,30.06,NW,312,0.0,0.0,88,0.00,,,0.00,0,WeatherCatV1.20B785,2013-09-05 03:16:00,
2013-09-04 23:18:00,57.6,53.8,30.06,NW,312,0.0,0.0,87,0.00,,,0.00,0,WeatherCatV1.20B785,2013-09-05 03:18:00,
2013-09-04 23:19:00,57.6,53.8,30.06,NW,312,0.0,0.0,87,0.00,,,0.00,0,WeatherCatV1.20B785,2013-09-05 03:19:00,
2013-09-04 23:20:00,57.6,53.8,30.06,NW,309,1.0,2.0,87,0.00,,,0.00,0,WeatherCatV1.20B785,2013-09-05 03:20:00,
2013-09-04 23:21:00,57.6,53.8,30.06,NW,309,0.0,2.0,87,0.00,,,0.00,0,WeatherCatV1.20B785,2013-09-05 03:21:00,
2013-09-04 23:23:00,57.5,54.0,30.05,NW,309,0.0,0.0,88,0.00,,,0.00,0,WeatherCatV1.20B785,2013-09-05 03:23:00,
2013-09-04 23:24:00,57.5,54.0,30.05,NW,309,0.0,0.0,88,0.00,,,0.00,0,WeatherCatV1.20B785,2013-09-05 03:24:00,
2013-09-04 23:26:00,57.5,54.0,30.05,NW,309,0.0,0.0,88,0.00,,,0.00,0,WeatherCatV1.20B785,2013-09-05 03:26:00,
2013-09-04 23:27:00,57.5,53.7,30.05,NW,309,0.0,0.0,87,0.00,,,0.00,0,WeatherCatV1.20B785,2013-09-05 03:27:00,
2013-09-04 23:28:00,57.5,53.7,30.05,NW,309,0.0,0.0,87,0.00,,,0.00,0,WeatherCatV1.20B785,2013-09-05 03:28:00,
2013-09-04 23:30:00,57.5,53.7,30.05,NW,309,0.0,0.0,87,0.00,,,0.00,0,WeatherCatV1.20B785,2013-09-05 03:30:00,
2013-09-04 23:31:00,57.4,53.6,30.05,NW,309,0.0,0.0,87,0.00,,,0.00,0,WeatherCatV1.20B785,2013-09-05 03:31:00,
2013-09-04 23:32:00,57.4,53.9,30.05,NW,309,0.0,0.0,88,0.00,,,0.00,0,WeatherCatV1.20B785,2013-09-05 03:32:00,
2013-09-04 23:33:00,57.4,53.9,30.05,NW,309,0.0,0.0,88,0.00,,,0.00,0,WeatherCatV1.20B785,2013-09-05 03:33:00,
2013-09-04 23:35:00,57.3,53.8,30.05,NW,309,0.0,0.0,88,0.00,,,0.00,0,WeatherCatV1.20B785,2013-09-05 03:35:00,
2013-09-04 23:36:00,57.3,53.8,30.05,NW,309,0.0,0.0,88,0.00,,,0.00,0,WeatherCatV1.20B785,2013-09-05 03:36:00,
2013-09-04 23:37:00,57.3,53.8,30.05,NW,309,0.0,0.0,88,0.00,,,0.00,0,WeatherCatV1.20B785,2013-09-05 03:37:00,
2013-09-04 23:38:00,57.2,53.7,30.05,NW,309,0.0,0.0,88,0.00,,,0.00,0,WeatherCatV1.20B785,2013-09-05 03:38:00,
2013-09-04 23:40:00,57.3,53.8,30.05,NW,309,0.0,0.0,88,0.00,,,0.00,0,WeatherCatV1.20B785,2013-09-05 03:40:00,
2013-09-04 23:41:00,57.2,53.7,30.05,NW,309,0.0,0.0,88,0.00,,,0.00,0,WeatherCatV1.20B785,2013-09-05 03:41:00,
2013-09-04 23:42:00,57.2,53.7,30.05,NW,309,0.0,0.0,88,0.00,,,0.00,0,WeatherCatV1.20B785,2013-09-05 03:42:00,
2013-09-04 23:43:00,57.2,53.7,30.05,NW,309,0.0,0.0,88,0.00,,,0.00,0,WeatherCatV1.20B785,2013-09-05 03:43:00,
2013-09-04 23:46:00,57.2,53.7,30.05,NW,309,0.0,0.0,88,0.00,,,0.00,0,WeatherCatV1.20B785,2013-09-05 03:46:00,
2013-09-04 23:47:00,57.1,53.6,30.05,NW,309,0.0,0.0,88,0.00,,,0.00,0,WeatherCatV1.20B785,2013-09-05 03:47:00,
2013-09-04 23:48:00,57.1,53.6,30.05,NW,309,0.0,0.0,88,0.00,,,0.00,0,WeatherCatV1.20B785,2013-09-05 03:48:00,
2013-09-04 23:49:00,57.1,53.6,30.05,NW,309,0.0,0.0,88,0.00,,,0.00,0,WeatherCatV1.20B785,2013-09-05 03:49:00,
2013-09-04 23:52:00,57.0,53.5,30.05,NW,309,0.0,0.0,88,0.00,,,0.00,0,WeatherCatV1.20B785,2013-09-05 03:52:00,
2013-09-04 23:53:00,57.0,53.5,30.05,NW,309,0.0,0.0,88,0.00,,,0.00,0,WeatherCatV1.20B785,2013-09-05 03:53:00,
2013-09-04 23:54:00,56.9,53.4,30.05,NW,309,0.0,0.0,88,0.00,,,0.00,0,WeatherCatV1.20B785,2013-09-05 03:54:00,
2013-09-04 23:55:00,56.9,53.4,30.05,NW,309,0.0,0.0,88,0.00,,,0.00,0,WeatherCatV1.20B785,2013-09-05 03:55:00,
2013-09-04 23:57:00,56.9,53.4,30.05,NW,309,0.0,0.0,88,0.00,,,0.00,0,WeatherCatV1.20B785,2013-09-05 03:57:00,
2013-09-04 23:58:00,56.8,53.3,30.05,NW,309,0.0,1.0,88,0.00,,,0.00,0,WeatherCatV1.20B785,2013-09-05 03:58:00,
2013-09-04 23:59:00,56.9,53.4,30.05,NW,309,0.0,1.0,88,0.00,,,0.00,0,WeatherCatV1.20B785,2013-09-05 03:59:00,